Time,TemperatureF,DewpointF,PressureIn,WindDirection,WindDirectionDegrees,WindSpeedMPH,WindSpeedGustMPH,Humidity,HourlyPrecipIn,Conditions,Clouds,dailyrainin,SoftwareType,DateUTC
2013-08-26 00:00:00,83.8,75.0,29.96,SSW,202,0.0,0.0,75,0.00,,---,0.00,VWS V13.01,2013-08-26 04:00:00,
2013-08-26 00:01:00,83.8,75.0,29.96,South,180,0.0,0.0,75,0.00,,---,0.00,VWS V13.01,2013-08-26 04:01:00,
2013-08-26 00:06:00,83.8,74.6,29.96,East,90,0.0,0.0,74,0.00,,---,0.00,VWS V13.01,2013-08-26 04:06:00,
2013-08-26 00:11:00,83.8,75.0,29.96,ESE,112,0.0,0.0,75,0.00,,---,0.00,VWS V13.01,2013-08-26 04:11:00,
2013-08-26 00:16:00,83.8,75.0,29.95,SE,135,1.3,1.3,75,0.00,,---,0.00,VWS V13.01,2013-08-26 04:16:00,
2013-08-26 00:21:00,83.8,75.0,29.96,East,90,2.4,2.4,75,0.00,,---,0.00,VWS V13.01,2013-08-26 04:21:00,
2013-08-26 00:26:00,83.1,75.2,29.96,SE,135,8.0,8.0,77,0.06,,---,0.06,VWS V13.01,2013-08-26 04:26:00,
2013-08-26 00:31:00,82.2,75.0,29.95,East,90,2.6,2.6,79,0.08,,---,0.08,VWS V13.01,2013-08-26 04:31:00,
2013-08-26 00:36:00,81.6,74.8,29.95,ENE,68,0.0,0.0,80,0.08,,---,0.08,VWS V13.01,2013-08-26 04:36:00,
2013-08-26 00:41:00,81.5,75.1,29.94,SE,135,1.5,3.1,81,0.10,,---,0.10,VWS V13.01,2013-08-26 04:41:00,
2013-08-26 00:46:00,81.3,74.9,29.94,SSE,158,2.9,2.9,81,0.10,,---,0.10,VWS V13.01,2013-08-26 04:46:00,
2013-08-26 00:51:00,81.3,74.9,29.94,East,90,0.0,0.0,81,0.10,,---,0.10,VWS V13.01,2013-08-26 04:51:00,
2013-08-26 00:56:00,81.5,75.1,29.94,ESE,112,0.0,0.0,81,0.10,,---,0.10,VWS V13.01,2013-08-26 04:56:00,
2013-08-26 00:57:00,81.5,75.1,29.94,ESE,112,0.0,0.0,81,0.10,,---,0.10,VWS V13.01,2013-08-26 04:57:00,
2013-08-26 01:01:00,81.5,75.5,29.93,SE,135,1.1,1.1,82,0.10,,---,0.10,VWS V13.01,2013-08-26 05:01:00,
2013-08-26 01:02:00,81.5,75.5,29.93,SE,135,1.1,1.1,82,0.10,,---,0.10,VWS V13.01,2013-08-26 05:02:00,
2013-08-26 01:06:00,81.6,75.6,29.93,ESE,112,5.3,5.3,82,0.10,,---,0.10,VWS V13.01,2013-08-26 05:06:00,
2013-08-26 01:07:00,81.6,75.6,29.93,ESE,112,5.3,5.3,82,0.10,,---,0.10,VWS V13.01,2013-08-26 05:07:00,
2013-08-26 01:11:00,81.6,75.6,29.93,SE,135,0.0,0.0,82,0.10,,---,0.10,VWS V13.01,2013-08-26 05:11:00,
2013-08-26 01:12:00,81.6,75.6,29.93,SE,135,0.0,0.0,82,0.10,,---,0.10,VWS V13.01,2013-08-26 05:12:00,
2013-08-26 01:16:00,81.5,75.5,29.93,East,90,3.5,3.5,82,0.10,,---,0.10,VWS V13.01,2013-08-26 05:16:00,
2013-08-26 01:17:00,81.5,75.5,29.93,East,90,3.5,3.5,82,0.10,,---,0.10,VWS V13.01,2013-08-26 05:17:00,
2013-08-26 01:21:00,81.5,75.5,29.93,SE,135,1.5,1.5,82,0.04,,---,0.10,VWS V13.01,2013-08-26 05:21:00,
2013-08-26 01:22:00,81.5,75.5,29.93,SE,135,1.5,1.5,82,0.04,,---,0.10,VWS V13.01,2013-08-26 05:22:00,
2013-08-26 01:26:00,81.5,75.5,29.92,ESE,112,0.0,0.0,82,0.02,,---,0.10,VWS V13.01,2013-08-26 05:26:00,
2013-08-26 01:27:00,81.5,75.5,29.92,ESE,112,0.0,0.0,82,0.02,,---,0.10,VWS V13.01,2013-08-26 05:27:00,
2013-08-26 01:31:00,81.5,75.5,29.92,SE,135,1.7,1.7,82,0.02,,---,0.10,VWS V13.01,2013-08-26 05:31:00,
2013-08-26 01:32:00,81.5,75.5,29.92,SE,135,1.7,1.7,82,0.02,,---,0.10,VWS V13.01,2013-08-26 05:32:00,
2013-08-26 01:36:00,81.5,75.5,29.92,SSE,158,0.0,0.0,82,0.00,,---,0.10,VWS V13.01,2013-08-26 05:36:00,
2013-08-26 01:37:00,81.5,75.5,29.92,SSE,158,0.0,0.0,82,0.00,,---,0.10,VWS V13.01,2013-08-26 05:37:00,
2013-08-26 01:42:00,81.5,75.5,29.92,SE,135,2.9,2.9,82,0.00,,---,0.10,VWS V13.01,2013-08-26 05:42:00,
2013-08-26 01:47:00,81.5,75.5,29.91,SE,135,3.1,3.1,82,0.00,,---,0.10,VWS V13.01,2013-08-26 05:47:00,
2013-08-26 01:52:00,81.5,75.5,29.92,SSE,158,4.4,4.4,82,0.00,,---,0.10,VWS V13.01,2013-08-26 05:52:00,
2013-08-26 01:57:00,81.5,75.5,29.91,SE,135,1.7,1.7,82,0.00,,---,0.10,VWS V13.01,2013-08-26 05:57:00,
2013-08-26 01:58:00,81.5,75.5,29.91,ESE,112,0.0,0.0,82,0.00,,---,0.10,VWS V13.01,2013-08-26 05:58:00,
2013-08-26 02:02:00,81.3,75.3,29.91,ESE,112,3.8,3.8,82,0.00,,---,0.10,VWS V13.01,2013-08-26 06:02:00,
2013-08-26 02:03:00,81.3,75.3,29.91,SSE,158,0.0,0.0,82,0.00,,---,0.10,VWS V13.01,2013-08-26 06:03:00,
2013-08-26 02:07:00,81.3,75.3,29.91,SE,135,0.0,0.0,82,0.00,,---,0.10,VWS V13.01,2013-08-26 06:07:00,
2013-08-26 02:08:00,81.3,75.3,29.91,East,90,1.3,1.3,82,0.00,,---,0.10,VWS V13.01,2013-08-26 06:08:00,
2013-08-26 02:12:00,81.3,75.3,29.91,South,180,2.0,2.0,82,0.00,,---,0.10,VWS V13.01,2013-08-26 06:12:00,
2013-08-26 02:13:00,81.3,75.3,29.91,ENE,68,0.6,0.6,82,0.00,,---,0.10,VWS V13.01,2013-08-26 06:13:00,
2013-08-26 02:17:00,81.3,75.3,29.91,SE,135,0.0,0.0,82,0.00,,---,0.10,VWS V13.01,2013-08-26 06:17:00,
2013-08-26 02:18:00,81.3,75.3,29.91,SE,135,0.0,0.0,82,0.00,,---,0.10,VWS V13.01,2013-08-26 06:18:00,
2013-08-26 02:22:00,81.3,75.3,29.91,SE,135,0.0,0.0,82,0.00,,---,0.10,VWS V13.01,2013-08-26 06:22:00,
2013-08-26 02:23:00,81.3,75.3,29.91,SE,135,0.0,0.0,82,0.00,,---,0.10,VWS V13.01,2013-08-26 06:23:00,
2013-08-26 02:27:00,81.1,75.1,29.91,SE,135,0.0,0.0,82,0.00,,---,0.10,VWS V13.01,2013-08-26 06:27:00,
2013-08-26 02:28:00,81.1,75.1,29.91,SE,135,0.0,0.0,82,0.00,,---,0.10,VWS V13.01,2013-08-26 06:28:00,
2013-08-26 02:32:00,81.1,75.1,29.91,SSE,158,1.3,1.3,82,0.00,,---,0.10,VWS V13.01,2013-08-26 06:32:00,
2013-08-26 02:33:00,81.1,75.1,29.91,SSE,158,1.3,1.3,82,0.00,,---,0.10,VWS V13.01,2013-08-26 06:33:00,
2013-08-26 02:37:00,81.1,75.1,29.90,SE,135,3.1,3.1,82,0.00,,---,0.10,VWS V13.01,2013-08-26 06:37:00,
2013-08-26 02:38:00,81.1,75.1,29.90,SE,135,3.1,3.1,82,0.00,,---,0.10,VWS V13.01,2013-08-26 06:38:00,
2013-08-26 02:42:00,81.1,75.1,29.90,South,180,0.0,0.0,82,0.00,,---,0.10,VWS V13.01,2013-08-26 06:42:00,
2013-08-26 02:43:00,81.1,75.1,29.90,SSE,158,0.0,0.0,82,0.00,,---,0.10,VWS V13.01,2013-08-26 06:43:00,
2013-08-26 02:47:00,81.1,75.1,29.90,SE,135,2.9,2.9,82,0.00,,---,0.10,VWS V13.01,2013-08-26 06:47:00,
2013-08-26 02:48:00,81.1,75.1,29.90,SE,135,0.0,0.0,82,0.00,,---,0.10,VWS V13.01,2013-08-26 06:48:00,
2013-08-26 02:52:00,81.1,75.1,29.90,SE,135,1.5,1.5,82,0.00,,---,0.10,VWS V13.01,2013-08-26 06:52:00,
2013-08-26 02:53:00,81.1,75.1,29.90,SSE,158,0.6,0.6,82,0.00,,---,0.10,VWS V13.01,2013-08-26 06:53:00,
2013-08-26 02:57:00,81.1,75.1,29.90,SE,135,0.0,0.0,82,0.00,,---,0.10,VWS V13.01,2013-08-26 06:57:00,
2013-08-26 02:58:00,81.1,75.1,29.90,SE,135,0.0,0.0,82,0.00,,---,0.10,VWS V13.01,2013-08-26 06:58:00,
2013-08-26 03:02:00,81.1,74.7,29.90,East,90,1.5,1.5,81,0.00,,---,0.10,VWS V13.01,2013-08-26 07:02:00,
2013-08-26 03:03:00,81.1,74.7,29.90,East,90,1.5,1.5,81,0.00,,---,0.10,VWS V13.01,2013-08-26 07:03:00,
2013-08-26 03:07:00,81.1,74.7,29.90,SE,135,2.0,2.0,81,0.00,,---,0.10,VWS V13.01,2013-08-26 07:07:00,
2013-08-26 03:08:00,81.1,74.7,29.90,SE,135,2.0,2.0,81,0.00,,---,0.10,VWS V13.01,2013-08-26 07:08:00,
2013-08-26 03:12:00,81.1,74.7,29.90,SE,135,2.2,2.2,81,0.00,,---,0.10,VWS V13.01,2013-08-26 07:12:00,
2013-08-26 03:13:00,81.1,74.7,29.90,SE,135,2.2,2.2,81,0.00,,---,0.10,VWS V13.01,2013-08-26 07:13:00,
2013-08-26 03:14:00,81.1,74.7,29.90,ESE,112,0.0,0.0,81,0.00,,---,0.10,VWS V13.01,2013-08-26 07:14:00,
2013-08-26 03:17:00,81.1,74.7,29.89,SSE,158,3.3,3.3,81,0.00,,---,0.10,VWS V13.01,2013-08-26 07:17:00,
2013-08-26 03:18:00,81.1,74.7,29.90,South,180,1.3,1.3,81,0.00,,---,0.10,VWS V13.01,2013-08-26 07:18:00,
2013-08-26 03:19:00,81.1,74.7,29.90,South,180,1.3,1.3,81,0.00,,---,0.10,VWS V13.01,2013-08-26 07:19:00,
2013-08-26 03:22:00,81.1,74.7,29.90,South,180,2.2,2.2,81,0.00,,---,0.10,VWS V13.01,2013-08-26 07:22:00,
2013-08-26 03:23:00,81.1,74.7,29.90,South,180,1.7,1.7,81,0.00,,---,0.10,VWS V13.01,2013-08-26 07:23:00,
2013-08-26 03:24:00,81.1,74.7,29.90,South,180,1.7,1.7,81,0.00,,---,0.10,VWS V13.01,2013-08-26 07:24:00,
2013-08-26 03:27:00,81.1,74.7,29.90,South,180,2.0,2.0,81,0.00,,---,0.10,VWS V13.01,2013-08-26 07:27:00,
2013-08-26 03:28:00,81.1,74.7,29.90,South,180,2.0,2.0,81,0.00,,---,0.10,VWS V13.01,2013-08-26 07:28:00,
2013-08-26 03:29:00,81.1,74.7,29.90,SSE,158,1.3,1.3,81,0.00,,---,0.10,VWS V13.01,2013-08-26 07:29:00,
2013-08-26 03:32:00,81.1,74.7,29.89,SSE,158,1.3,1.3,81,0.00,,---,0.10,VWS V13.01,2013-08-26 07:32:00,
2013-08-26 03:33:00,81.1,74.7,29.89,SSE,158,1.3,1.3,81,0.00,,---,0.10,VWS V13.01,2013-08-26 07:33:00,
2013-08-26 03:34:00,81.1,74.7,29.90,SE,135,0.0,0.0,81,0.00,,---,0.10,VWS V13.01,2013-08-26 07:34:00,
2013-08-26 03:38:00,81.1,74.7,29.90,SSE,158,0.0,0.0,81,0.00,,---,0.10,VWS V13.01,2013-08-26 07:38:00,
2013-08-26 03:39:00,81.1,74.7,29.90,ESE,112,1.3,1.3,81,0.00,,---,0.10,VWS V13.01,2013-08-26 07:39:00,
2013-08-26 03:43:00,81.1,75.1,29.90,SSE,158,2.4,2.4,82,0.00,,---,0.10,VWS V13.01,2013-08-26 07:43:00,
2013-08-26 03:44:00,81.1,74.7,29.90,SSE,158,1.3,1.3,81,0.00,,---,0.10,VWS V13.01,2013-08-26 07:44:00,
2013-08-26 03:48:00,81.1,74.7,29.90,SSE,158,1.3,1.3,81,0.00,,---,0.10,VWS V13.01,2013-08-26 07:48:00,
2013-08-26 03:49:00,81.1,74.7,29.90,SSE,158,0.0,0.0,81,0.00,,---,0.10,VWS V13.01,2013-08-26 07:49:00,
2013-08-26 03:53:00,81.1,74.7,29.90,SSE,158,1.1,1.1,81,0.00,,---,0.10,VWS V13.01,2013-08-26 07:53:00,
2013-08-26 03:54:00,81.1,74.7,29.90,SSE,158,2.0,2.0,81,0.00,,---,0.10,VWS V13.01,2013-08-26 07:54:00,
2013-08-26 03:58:00,81.1,74.7,29.90,South,180,0.0,0.0,81,0.00,,---,0.10,VWS V13.01,2013-08-26 07:58:00,
2013-08-26 03:59:00,81.1,74.7,29.90,South,180,0.0,0.0,81,0.00,,---,0.10,VWS V13.01,2013-08-26 07:59:00,
2013-08-26 04:03:00,81.1,74.7,29.90,SSE,158,0.0,0.0,81,0.00,,---,0.10,VWS V13.01,2013-08-26 08:03:00,
2013-08-26 04:04:00,81.1,74.7,29.90,SSE,158,0.0,0.0,81,0.00,,---,0.10,VWS V13.01,2013-08-26 08:04:00,
2013-08-26 04:08:00,81.1,74.7,29.90,SSE,158,0.0,0.0,81,0.00,,---,0.10,VWS V13.01,2013-08-26 08:08:00,
2013-08-26 04:09:00,81.1,74.7,29.90,SSE,158,0.0,0.0,81,0.00,,---,0.10,VWS V13.01,2013-08-26 08:09:00,
2013-08-26 04:13:00,81.1,74.7,29.90,SSE,158,0.0,0.0,81,0.00,,---,0.10,VWS V13.01,2013-08-26 08:13:00,
2013-08-26 04:14:00,81.1,74.7,29.90,SSE,158,0.0,0.0,81,0.00,,---,0.10,VWS V13.01,2013-08-26 08:14:00,
2013-08-26 04:18:00,81.1,74.7,29.90,SSE,158,0.0,0.0,81,0.00,,---,0.10,VWS V13.01,2013-08-26 08:18:00,
2013-08-26 04:19:00,81.1,74.7,29.90,SSE,158,2.2,2.2,81,0.00,,---,0.10,VWS V13.01,2013-08-26 08:19:00,
2013-08-26 04:23:00,80.9,74.5,29.90,SSE,158,0.0,0.0,81,0.00,,---,0.10,VWS V13.01,2013-08-26 08:23:00,
2013-08-26 04:24:00,81.1,74.7,29.90,SE,135,0.0,0.0,81,0.00,,---,0.10,VWS V13.01,2013-08-26 08:24:00,
2013-08-26 04:25:00,80.9,74.5,29.90,SSE,158,0.0,0.0,81,0.00,,---,0.10,VWS V13.01,2013-08-26 08:25:00,
2013-08-26 04:28:00,80.9,74.9,29.90,ESE,112,0.0,0.0,82,0.00,,---,0.10,VWS V13.01,2013-08-26 08:28:00,
2013-08-26 04:29:00,80.9,74.9,29.90,SSE,158,0.0,0.0,82,0.00,,---,0.10,VWS V13.01,2013-08-26 08:29:00,
2013-08-26 04:30:00,80.9,74.9,29.90,South,180,1.5,1.5,82,0.00,,---,0.10,VWS V13.01,2013-08-26 08:30:00,
2013-08-26 04:33:00,80.9,74.9,29.90,South,180,0.0,0.0,82,0.00,,---,0.10,VWS V13.01,2013-08-26 08:33:00,
2013-08-26 04:34:00,80.9,74.9,29.90,South,180,0.0,0.0,82,0.00,,---,0.10,VWS V13.01,2013-08-26 08:34:00,
2013-08-26 04:35:00,80.7,74.7,29.90,ESE,112,0.0,0.0,82,0.00,,---,0.10,VWS V13.01,2013-08-26 08:35:00,
2013-08-26 04:38:00,80.7,74.7,29.91,SSW,202,1.5,1.5,82,0.00,,---,0.10,VWS V13.01,2013-08-26 08:38:00,
2013-08-26 04:39:00,80.7,74.7,29.91,South,180,0.0,0.0,82,0.00,,---,0.10,VWS V13.01,2013-08-26 08:39:00,
2013-08-26 04:40:00,80.7,74.7,29.91,South,180,0.0,0.0,82,0.00,,---,0.10,VWS V13.01,2013-08-26 08:40:00,
2013-08-26 04:43:00,80.7,74.7,29.90,South,180,0.0,0.0,82,0.00,,---,0.10,VWS V13.01,2013-08-26 08:43:00,
2013-08-26 04:44:00,80.6,74.6,29.90,South,180,0.0,0.0,82,0.00,,---,0.10,VWS V13.01,2013-08-26 08:44:00,
2013-08-26 04:45:00,80.6,74.6,29.90,South,180,0.0,0.0,82,0.00,,---,0.10,VWS V13.01,2013-08-26 08:45:00,
2013-08-26 04:48:00,80.6,74.6,29.91,South,180,0.0,0.0,82,0.00,,---,0.10,VWS V13.01,2013-08-26 08:48:00,
2013-08-26 04:49:00,80.6,74.6,29.91,SSE,158,0.0,0.0,82,0.00,,---,0.10,VWS V13.01,2013-08-26 08:49:00,
2013-08-26 04:50:00,80.6,74.6,29.91,SSE,158,0.0,0.0,82,0.00,,---,0.10,VWS V13.01,2013-08-26 08:50:00,
2013-08-26 04:53:00,80.6,74.6,29.91,SE,135,0.0,0.0,82,0.00,,---,0.10,VWS V13.01,2013-08-26 08:53:00,
2013-08-26 04:54:00,80.6,74.6,29.91,SE,135,0.0,0.0,82,0.00,,---,0.10,VWS V13.01,2013-08-26 08:54:00,
2013-08-26 04:55:00,80.6,74.6,29.91,SE,135,0.0,0.0,82,0.00,,---,0.10,VWS V13.01,2013-08-26 08:55:00,
2013-08-26 04:58:00,80.6,74.6,29.91,ESE,112,1.1,1.1,82,0.00,,---,0.10,VWS V13.01,2013-08-26 08:58:00,
2013-08-26 04:59:00,80.6,74.6,29.91,ESE,112,1.1,1.1,82,0.00,,---,0.10,VWS V13.01,2013-08-26 08:59:00,
2013-08-26 05:00:00,80.6,74.6,29.91,South,180,0.0,0.0,82,0.00,,---,0.10,VWS V13.01,2013-08-26 09:00:00,
2013-08-26 05:03:00,80.7,74.7,29.91,SSE,158,1.3,1.3,82,0.00,,---,0.10,VWS V13.01,2013-08-26 09:03:00,
2013-08-26 05:04:00,80.7,74.7,29.91,SSE,158,1.3,1.3,82,0.00,,---,0.10,VWS V13.01,2013-08-26 09:04:00,
2013-08-26 05:05:00,80.7,74.7,29.91,SSE,158,0.0,0.0,82,0.00,,---,0.10,VWS V13.01,2013-08-26 09:05:00,
2013-08-26 05:08:00,80.7,74.7,29.92,SSE,158,0.0,0.0,82,0.00,,---,0.10,VWS V13.01,2013-08-26 09:08:00,
2013-08-26 05:09:00,80.7,74.7,29.92,SSE,158,0.0,0.0,82,0.00,,---,0.10,VWS V13.01,2013-08-26 09:09:00,
2013-08-26 05:10:00,80.7,74.7,29.92,SE,135,0.0,0.0,82,0.00,,---,0.10,VWS V13.01,2013-08-26 09:10:00,
2013-08-26 05:13:00,80.7,74.7,29.92,SSE,158,0.0,0.0,82,0.00,,---,0.10,VWS V13.01,2013-08-26 09:13:00,
2013-08-26 05:14:00,80.7,74.7,29.92,SSE,158,0.0,0.0,82,0.00,,---,0.10,VWS V13.01,2013-08-26 09:14:00,
2013-08-26 05:15:00,80.7,74.7,29.92,SSE,158,0.0,0.0,82,0.00,,---,0.10,VWS V13.01,2013-08-26 09:15:00,
2013-08-26 05:18:00,80.7,74.7,29.92,SSE,158,0.0,0.0,82,0.00,,---,0.10,VWS V13.01,2013-08-26 09:18:00,
2013-08-26 05:19:00,80.7,74.7,29.92,South,180,0.0,0.0,82,0.00,,---,0.10,VWS V13.01,2013-08-26 09:19:00,
2013-08-26 05:20:00,80.7,74.7,29.92,South,180,0.0,0.0,82,0.00,,---,0.10,VWS V13.01,2013-08-26 09:20:00,
2013-08-26 05:23:00,80.7,74.7,29.91,SSE,158,0.0,0.0,82,0.00,,---,0.10,VWS V13.01,2013-08-26 09:23:00,
2013-08-26 05:24:00,80.7,74.7,29.91,SSE,158,0.0,0.0,82,0.00,,---,0.10,VWS V13.01,2013-08-26 09:24:00,
2013-08-26 05:25:00,80.7,74.7,29.91,SSE,158,0.0,0.0,82,0.00,,---,0.10,VWS V13.01,2013-08-26 09:25:00,
2013-08-26 05:28:00,80.7,74.7,29.91,SSE,158,0.0,0.0,82,0.00,,---,0.10,VWS V13.01,2013-08-26 09:28:00,
2013-08-26 05:29:00,80.7,74.7,29.91,SSE,158,2.4,2.4,82,0.00,,---,0.10,VWS V13.01,2013-08-26 09:29:00,
2013-08-26 05:30:00,80.7,74.7,29.91,SSE,158,0.8,0.8,82,0.00,,---,0.10,VWS V13.01,2013-08-26 09:30:00,
2013-08-26 05:33:00,80.7,74.7,29.92,South,180,1.5,1.5,82,0.00,,---,0.10,VWS V13.01,2013-08-26 09:33:00,
2013-08-26 05:34:00,80.7,74.7,29.92,South,180,0.0,0.0,82,0.00,,---,0.10,VWS V13.01,2013-08-26 09:34:00,
2013-08-26 05:35:00,80.7,74.7,29.92,South,180,1.3,1.3,82,0.00,,---,0.10,VWS V13.01,2013-08-26 09:35:00,
2013-08-26 05:38:00,80.7,75.1,29.92,South,180,1.7,1.7,83,0.00,,---,0.10,VWS V13.01,2013-08-26 09:38:00,
2013-08-26 05:39:00,80.6,75.0,29.92,SE,135,2.4,2.4,83,0.00,,---,0.10,VWS V13.01,2013-08-26 09:39:00,
2013-08-26 05:40:00,80.6,75.0,29.91,SE,135,1.5,1.5,83,0.00,,---,0.10,VWS V13.01,2013-08-26 09:40:00,
2013-08-26 05:41:00,80.6,75.0,29.91,SE,135,1.5,1.5,83,0.00,,---,0.10,VWS V13.01,2013-08-26 09:41:00,
2013-08-26 05:43:00,80.6,75.0,29.92,SSE,158,0.0,0.0,83,0.00,,---,0.10,VWS V13.01,2013-08-26 09:43:00,
2013-08-26 05:44:00,80.6,75.0,29.92,ESE,112,0.0,0.0,83,0.00,,---,0.10,VWS V13.01,2013-08-26 09:44:00,
2013-08-26 05:45:00,80.6,75.0,29.92,SSE,158,1.7,1.7,83,0.00,,---,0.10,VWS V13.01,2013-08-26 09:45:00,
2013-08-26 05:48:00,80.6,75.0,29.92,SSE,158,0.0,0.0,83,0.00,,---,0.10,VWS V13.01,2013-08-26 09:48:00,
2013-08-26 05:49:00,80.6,74.6,29.92,SSE,158,1.3,1.3,82,0.00,,---,0.10,VWS V13.01,2013-08-26 09:49:00,
2013-08-26 05:50:00,80.4,74.4,29.92,SSW,202,1.3,1.3,82,0.00,,---,0.10,VWS V13.01,2013-08-26 09:50:00,
2013-08-26 05:51:00,80.4,74.4,29.92,SSW,202,1.3,1.3,82,0.00,,---,0.10,VWS V13.01,2013-08-26 09:51:00,
2013-08-26 05:53:00,80.4,74.4,29.92,SE,135,0.0,0.0,82,0.00,,---,0.10,VWS V13.01,2013-08-26 09:53:00,
2013-08-26 05:54:00,80.4,74.4,29.92,SE,135,1.7,1.7,82,0.00,,---,0.10,VWS V13.01,2013-08-26 09:54:00,
2013-08-26 05:55:00,80.4,74.4,29.92,SE,135,0.0,0.0,82,0.00,,---,0.10,VWS V13.01,2013-08-26 09:55:00,
2013-08-26 05:56:00,80.4,74.4,29.92,SE,135,0.0,0.0,82,0.00,,---,0.10,VWS V13.01,2013-08-26 09:56:00,
2013-08-26 05:58:00,80.6,74.6,29.93,South,180,0.0,0.0,82,0.00,,---,0.10,VWS V13.01,2013-08-26 09:58:00,
2013-08-26 05:59:00,80.4,74.8,29.93,SSE,158,0.0,0.0,83,0.00,,---,0.10,VWS V13.01,2013-08-26 09:59:00,
2013-08-26 06:00:00,80.6,74.6,29.92,SSE,158,0.0,0.0,82,0.00,,---,0.10,VWS V13.01,2013-08-26 10:00:00,
2013-08-26 06:01:00,80.6,74.6,29.92,SSE,158,0.0,0.0,82,0.00,,---,0.10,VWS V13.01,2013-08-26 10:01:00,
2013-08-26 06:03:00,80.4,74.4,29.92,South,180,0.0,0.0,82,0.00,,---,0.10,VWS V13.01,2013-08-26 10:03:00,
2013-08-26 06:04:00,80.6,74.6,29.92,South,180,2.2,2.2,82,0.00,,---,0.10,VWS V13.01,2013-08-26 10:04:00,
2013-08-26 06:05:00,80.4,74.4,29.92,South,180,2.4,2.4,82,0.00,,---,0.10,VWS V13.01,2013-08-26 10:05:00,
2013-08-26 06:06:00,80.4,74.4,29.92,South,180,2.4,2.4,82,0.00,,---,0.10,VWS V13.01,2013-08-26 10:06:00,
2013-08-26 06:08:00,80.4,74.4,29.92,South,180,0.0,0.0,82,0.00,,---,0.10,VWS V13.01,2013-08-26 10:08:00,
2013-08-26 06:10:00,80.4,74.4,29.93,South,180,0.0,0.0,82,0.00,,---,0.10,VWS V13.01,2013-08-26 10:10:00,
2013-08-26 06:11:00,80.4,74.4,29.93,SSW,202,0.0,0.0,82,0.00,,---,0.10,VWS V13.01,2013-08-26 10:11:00,
2013-08-26 06:14:00,80.4,74.4,29.93,SSE,158,0.0,0.0,82,0.00,,---,0.10,VWS V13.01,2013-08-26 10:14:00,
2013-08-26 06:15:00,80.4,74.4,29.93,SSE,158,0.0,0.0,82,0.00,,---,0.10,VWS V13.01,2013-08-26 10:15:00,
2013-08-26 06:16:00,80.4,74.4,29.93,SSW,202,0.0,0.0,82,0.00,,---,0.10,VWS V13.01,2013-08-26 10:16:00,
2013-08-26 06:19:00,80.4,74.4,29.92,South,180,0.0,0.0,82,0.00,,---,0.10,VWS V13.01,2013-08-26 10:19:00,
2013-08-26 06:20:00,80.4,74.4,29.92,SSW,202,2.0,2.0,82,0.00,,---,0.10,VWS V13.01,2013-08-26 10:20:00,
2013-08-26 06:21:00,80.4,74.4,29.92,South,180,0.0,0.0,82,0.00,,---,0.10,VWS V13.01,2013-08-26 10:21:00,
2013-08-26 06:24:00,80.4,74.4,29.93,South,180,1.1,1.1,82,0.00,,---,0.10,VWS V13.01,2013-08-26 10:24:00,
2013-08-26 06:25:00,80.4,74.4,29.93,SSE,158,0.0,0.0,82,0.00,,---,0.10,VWS V13.01,2013-08-26 10:25:00,
2013-08-26 06:26:00,80.4,74.4,29.93,South,180,0.0,0.0,82,0.00,,---,0.10,VWS V13.01,2013-08-26 10:26:00,
2013-08-26 06:29:00,80.6,74.6,29.93,SSW,202,0.0,0.0,82,0.00,,---,0.10,VWS V13.01,2013-08-26 10:29:00,
2013-08-26 06:30:00,80.4,74.4,29.93,South,180,1.5,1.5,82,0.00,,---,0.10,VWS V13.01,2013-08-26 10:30:00,
2013-08-26 06:31:00,80.4,74.4,29.93,South,180,1.5,1.5,82,0.00,,---,0.10,VWS V13.01,2013-08-26 10:31:00,
2013-08-26 06:34:00,80.6,74.6,29.94,South,180,0.0,0.0,82,0.00,,---,0.10,VWS V13.01,2013-08-26 10:34:00,
2013-08-26 06:35:00,80.6,74.6,29.94,South,180,0.0,0.0,82,0.00,,---,0.10,VWS V13.01,2013-08-26 10:35:00,
2013-08-26 06:36:00,80.6,74.6,29.94,South,180,0.0,0.0,82,0.00,,---,0.10,VWS V13.01,2013-08-26 10:36:00,
2013-08-26 06:39:00,80.7,74.7,29.94,SSW,202,0.0,0.0,82,0.00,,---,0.10,VWS V13.01,2013-08-26 10:39:00,
2013-08-26 06:40:00,80.7,74.7,29.94,South,180,0.0,0.0,82,0.00,,---,0.10,VWS V13.01,2013-08-26 10:40:00,
2013-08-26 06:41:00,80.7,74.7,29.94,South,180,0.0,0.0,82,0.00,,---,0.10,VWS V13.01,2013-08-26 10:41:00,
2013-08-26 06:44:00,80.7,74.7,29.94,ESE,112,0.0,0.0,82,0.00,,---,0.10,VWS V13.01,2013-08-26 10:44:00,
2013-08-26 06:45:00,80.7,74.7,29.94,ESE,112,0.0,0.0,82,0.00,,---,0.10,VWS V13.01,2013-08-26 10:45:00,
2013-08-26 06:46:00,80.7,74.7,29.94,ESE,112,0.0,0.0,82,0.00,,---,0.10,VWS V13.01,2013-08-26 10:46:00,
2013-08-26 06:49:00,80.9,74.9,29.94,South,180,0.0,0.0,82,0.00,,---,0.10,VWS V13.01,2013-08-26 10:49:00,
2013-08-26 06:50:00,80.9,74.9,29.94,SSE,158,0.0,0.0,82,0.00,,---,0.10,VWS V13.01,2013-08-26 10:50:00,
2013-08-26 06:51:00,80.9,74.9,29.94,SSE,158,0.0,0.0,82,0.00,,---,0.10,VWS V13.01,2013-08-26 10:51:00,
2013-08-26 06:54:00,81.1,75.1,29.94,SE,135,0.0,0.0,82,0.00,,---,0.10,VWS V13.01,2013-08-26 10:54:00,
2013-08-26 06:55:00,81.1,75.1,29.94,South,180,0.0,0.0,82,0.00,,---,0.10,VWS V13.01,2013-08-26 10:55:00,
2013-08-26 06:56:00,81.1,75.1,29.94,South,180,0.0,0.0,82,0.00,,---,0.10,VWS V13.01,2013-08-26 10:56:00,
2013-08-26 06:57:00,81.1,75.1,29.94,SSE,158,0.0,0.0,82,0.00,,---,0.10,VWS V13.01,2013-08-26 10:57:00,
2013-08-26 06:59:00,81.3,75.3,29.94,South,180,0.0,0.0,82,0.00,,---,0.10,VWS V13.01,2013-08-26 10:59:00,
2013-08-26 07:00:00,81.3,75.3,29.94,South,180,0.0,0.0,82,0.00,,---,0.10,VWS V13.01,2013-08-26 11:00:00,
2013-08-26 07:01:00,81.3,75.3,29.94,South,180,1.5,1.5,82,0.00,,---,0.10,VWS V13.01,2013-08-26 11:01:00,
2013-08-26 07:02:00,81.3,75.3,29.94,South,180,1.5,1.5,82,0.00,,---,0.10,VWS V13.01,2013-08-26 11:02:00,
2013-08-26 07:04:00,81.5,75.1,29.94,South,180,4.0,4.0,81,0.00,,---,0.10,VWS V13.01,2013-08-26 11:04:00,
2013-08-26 07:05:00,81.6,75.2,29.94,SSE,158,0.0,0.0,81,0.00,,---,0.10,VWS V13.01,2013-08-26 11:05:00,
2013-08-26 07:06:00,81.6,75.2,29.94,SSE,158,0.0,0.0,81,0.00,,---,0.10,VWS V13.01,2013-08-26 11:06:00,
2013-08-26 07:07:00,81.6,75.2,29.94,ESE,112,0.6,0.6,81,0.00,,---,0.10,VWS V13.01,2013-08-26 11:07:00,
2013-08-26 07:09:00,81.6,75.2,29.93,ESE,112,0.0,0.0,81,0.00,,---,0.10,VWS V13.01,2013-08-26 11:09:00,
2013-08-26 07:10:00,81.8,75.4,29.93,South,180,0.0,0.0,81,0.00,,---,0.10,VWS V13.01,2013-08-26 11:10:00,
2013-08-26 07:11:00,82.0,75.6,29.93,SE,135,1.1,1.1,81,0.00,,---,0.10,VWS V13.01,2013-08-26 11:11:00,
2013-08-26 07:12:00,82.0,75.6,29.93,SE,135,1.1,1.1,81,0.00,,---,0.10,VWS V13.01,2013-08-26 11:12:00,
2013-08-26 07:14:00,82.0,75.6,29.94,SE,135,0.0,0.0,81,0.00,,---,0.10,VWS V13.01,2013-08-26 11:14:00,
2013-08-26 07:15:00,82.0,75.6,29.94,SE,135,0.0,0.0,81,0.00,,---,0.10,VWS V13.01,2013-08-26 11:15:00,
2013-08-26 07:16:00,82.2,75.8,29.94,ESE,112,2.4,2.4,81,0.00,,---,0.10,VWS V13.01,2013-08-26 11:16:00,
2013-08-26 07:17:00,82.2,75.8,29.94,ESE,112,2.4,2.4,81,0.00,,---,0.10,VWS V13.01,2013-08-26 11:17:00,
2013-08-26 07:19:00,82.2,75.8,29.94,SSW,202,0.0,0.0,81,0.00,,---,0.10,VWS V13.01,2013-08-26 11:19:00,
2013-08-26 07:20:00,82.2,75.8,29.94,South,180,0.0,0.0,81,0.00,,---,0.10,VWS V13.01,2013-08-26 11:20:00,
2013-08-26 07:21:00,82.2,75.4,29.94,SSW,202,0.0,0.0,80,0.00,,---,0.10,VWS V13.01,2013-08-26 11:21:00,
2013-08-26 07:22:00,82.2,75.4,29.94,SSW,202,0.0,0.0,80,0.00,,---,0.10,VWS V13.01,2013-08-26 11:22:00,
2013-08-26 07:24:00,82.2,75.4,29.94,SSE,158,1.3,1.3,80,0.00,,---,0.10,VWS V13.01,2013-08-26 11:24:00,
2013-08-26 07:25:00,82.4,75.6,29.94,SSE,158,2.0,2.0,80,0.00,,---,0.10,VWS V13.01,2013-08-26 11:25:00,
2013-08-26 07:26:00,82.4,75.6,29.94,South,180,0.6,0.6,80,0.00,,---,0.10,VWS V13.01,2013-08-26 11:26:00,
2013-08-26 07:27:00,82.5,75.7,29.95,SE,135,2.9,2.9,80,0.00,,---,0.10,VWS V13.01,2013-08-26 11:27:00,
2013-08-26 07:29:00,82.5,75.7,29.94,SSW,202,2.6,2.6,80,0.00,,---,0.10,VWS V13.01,2013-08-26 11:29:00,
2013-08-26 07:30:00,82.5,75.7,29.94,South,180,0.0,0.0,80,0.00,,---,0.10,VWS V13.01,2013-08-26 11:30:00,
2013-08-26 07:31:00,82.7,75.5,29.94,ESE,112,1.1,1.1,79,0.00,,---,0.10,VWS V13.01,2013-08-26 11:31:00,
2013-08-26 07:32:00,82.7,75.5,29.94,South,180,0.0,0.0,79,0.00,,---,0.10,VWS V13.01,2013-08-26 11:32:00,
2013-08-26 07:34:00,82.9,75.7,29.94,South,180,0.0,0.0,79,0.00,,---,0.10,VWS V13.01,2013-08-26 11:34:00,
2013-08-26 07:36:00,82.9,75.7,29.94,South,180,1.7,1.7,79,0.00,,---,0.10,VWS V13.01,2013-08-26 11:36:00,
2013-08-26 07:37:00,82.9,75.7,29.94,SE,135,2.0,2.0,79,0.00,,---,0.10,VWS V13.01,2013-08-26 11:37:00,
2013-08-26 07:39:00,83.1,75.9,29.94,SSE,158,1.5,1.5,79,0.00,,---,0.10,VWS V13.01,2013-08-26 11:39:00,
2013-08-26 07:41:00,83.1,75.9,29.94,South,180,0.0,0.0,79,0.00,,---,0.10,VWS V13.01,2013-08-26 11:41:00,
2013-08-26 07:42:00,83.1,75.9,29.94,South,180,1.7,1.7,79,0.00,,---,0.10,VWS V13.01,2013-08-26 11:42:00,
2013-08-26 07:44:00,83.3,76.1,29.94,SSE,158,0.0,0.0,79,0.00,,---,0.10,VWS V13.01,2013-08-26 11:44:00,
2013-08-26 07:46:00,83.4,76.2,29.94,ESE,112,0.0,0.0,79,0.00,,---,0.10,VWS V13.01,2013-08-26 11:46:00,
2013-08-26 07:47:00,83.3,76.1,29.94,South,180,0.0,0.0,79,0.00,,---,0.10,VWS V13.01,2013-08-26 11:47:00,
2013-08-26 07:49:00,83.4,76.2,29.94,ENE,68,2.0,2.0,79,0.00,,---,0.10,VWS V13.01,2013-08-26 11:49:00,
2013-08-26 07:51:00,83.4,76.2,29.94,SSE,158,0.0,0.0,79,0.00,,---,0.10,VWS V13.01,2013-08-26 11:51:00,
2013-08-26 07:52:00,83.4,75.8,29.94,SE,135,2.6,2.6,78,0.00,,---,0.10,VWS V13.01,2013-08-26 11:52:00,
2013-08-26 07:55:00,83.8,76.2,29.94,ESE,112,5.1,5.1,78,0.00,,---,0.10,VWS V13.01,2013-08-26 11:55:00,
2013-08-26 07:56:00,83.8,76.2,29.94,SE,135,3.8,3.8,78,0.00,,---,0.10,VWS V13.01,2013-08-26 11:56:00,
2013-08-26 07:57:00,83.8,76.2,29.94,SE,135,3.8,3.8,78,0.00,,---,0.10,VWS V13.01,2013-08-26 11:57:00,
2013-08-26 08:00:00,83.8,76.2,29.94,SSE,158,0.0,0.0,78,0.00,,---,0.10,VWS V13.01,2013-08-26 12:00:00,
2013-08-26 08:01:00,84.0,76.4,29.94,East,90,0.0,0.0,78,0.00,,---,0.10,VWS V13.01,2013-08-26 12:01:00,
2013-08-26 08:02:00,84.0,76.4,29.94,East,90,0.0,0.0,78,0.00,,---,0.10,VWS V13.01,2013-08-26 12:02:00,
2013-08-26 08:05:00,84.0,76.4,29.94,ESE,112,1.7,1.7,78,0.00,,---,0.10,VWS V13.01,2013-08-26 12:05:00,
2013-08-26 08:06:00,84.0,76.4,29.94,ENE,68,0.0,0.0,78,0.00,,---,0.10,VWS V13.01,2013-08-26 12:06:00,
2013-08-26 08:07:00,84.0,76.4,29.94,ENE,68,0.0,0.0,78,0.00,,---,0.10,VWS V13.01,2013-08-26 12:07:00,
2013-08-26 08:10:00,84.3,76.7,29.94,ENE,68,0.0,0.0,78,0.00,,---,0.10,VWS V13.01,2013-08-26 12:10:00,
2013-08-26 08:11:00,84.3,76.3,29.95,ESE,112,2.6,2.6,77,0.00,,---,0.10,VWS V13.01,2013-08-26 12:11:00,
2013-08-26 08:12:00,84.3,76.3,29.95,ESE,112,2.6,2.6,77,0.00,,---,0.10,VWS V13.01,2013-08-26 12:12:00,
2013-08-26 08:15:00,84.3,76.3,29.95,SE,135,0.0,4.0,77,0.00,,---,0.10,VWS V13.01,2013-08-26 12:15:00,
2013-08-26 08:16:00,84.3,76.3,29.95,East,90,4.2,4.2,77,0.00,,---,0.10,VWS V13.01,2013-08-26 12:16:00,
2013-08-26 08:17:00,84.3,76.3,29.95,East,90,4.2,4.2,77,0.00,,---,0.10,VWS V13.01,2013-08-26 12:17:00,
2013-08-26 08:20:00,84.3,76.3,29.95,ESE,112,0.0,0.0,77,0.00,,---,0.10,VWS V13.01,2013-08-26 12:20:00,
2013-08-26 08:21:00,84.3,76.3,29.95,ENE,68,0.0,0.0,77,0.00,,---,0.10,VWS V13.01,2013-08-26 12:21:00,
2013-08-26 08:22:00,84.3,76.3,29.95,ENE,68,0.0,0.0,77,0.00,,---,0.10,VWS V13.01,2013-08-26 12:22:00,
2013-08-26 08:25:00,84.3,76.3,29.95,ESE,112,0.0,0.0,77,0.00,,---,0.10,VWS V13.01,2013-08-26 12:25:00,
2013-08-26 08:26:00,84.5,76.5,29.95,SE,135,0.0,0.0,77,0.00,,---,0.10,VWS V13.01,2013-08-26 12:26:00,
2013-08-26 08:27:00,84.5,76.5,29.95,SE,135,0.0,0.0,77,0.00,,---,0.10,VWS V13.01,2013-08-26 12:27:00,
2013-08-26 08:30:00,84.7,76.7,29.95,East,90,0.0,0.0,77,0.00,,---,0.10,VWS V13.01,2013-08-26 12:30:00,
2013-08-26 08:31:00,84.7,76.7,29.95,SE,135,3.5,3.5,77,0.00,,---,0.10,VWS V13.01,2013-08-26 12:31:00,
2013-08-26 08:32:00,84.7,76.7,29.95,ESE,112,0.0,0.0,77,0.00,,---,0.10,VWS V13.01,2013-08-26 12:32:00,
2013-08-26 08:35:00,84.9,76.9,29.95,East,90,6.2,6.2,77,0.00,,---,0.10,VWS V13.01,2013-08-26 12:35:00,
2013-08-26 08:36:00,84.9,76.9,29.95,East,90,4.0,4.0,77,0.00,,---,0.10,VWS V13.01,2013-08-26 12:36:00,
2013-08-26 08:37:00,84.9,76.9,29.95,ENE,68,5.5,5.5,77,0.00,,---,0.10,VWS V13.01,2013-08-26 12:37:00,
2013-08-26 08:40:00,85.1,77.1,29.95,ENE,68,5.8,5.8,77,0.00,,---,0.10,VWS V13.01,2013-08-26 12:40:00,
2013-08-26 08:41:00,85.1,77.1,29.95,East,90,6.0,6.0,77,0.00,,---,0.10,VWS V13.01,2013-08-26 12:41:00,
2013-08-26 08:42:00,85.1,77.1,29.95,NE,45,4.0,4.0,77,0.00,,---,0.10,VWS V13.01,2013-08-26 12:42:00,
2013-08-26 08:45:00,85.2,77.2,29.95,ESE,112,2.0,2.0,77,0.00,,---,0.10,VWS V13.01,2013-08-26 12:45:00,
2013-08-26 08:46:00,85.2,77.2,29.95,SSE,158,0.0,0.0,77,0.00,,---,0.10,VWS V13.01,2013-08-26 12:46:00,
2013-08-26 08:47:00,85.2,77.2,29.95,East,90,4.4,4.4,77,0.00,,---,0.10,VWS V13.01,2013-08-26 12:47:00,
2013-08-26 08:50:00,85.2,77.2,29.95,ESE,112,1.3,1.3,77,0.00,,---,0.10,VWS V13.01,2013-08-26 12:50:00,
2013-08-26 08:51:00,85.2,77.2,29.95,ESE,112,0.0,0.0,77,0.00,,---,0.10,VWS V13.01,2013-08-26 12:51:00,
2013-08-26 08:52:00,85.1,77.1,29.95,SE,135,7.6,7.6,77,0.00,,---,0.10,VWS V13.01,2013-08-26 12:52:00,
2013-08-26 08:55:00,85.1,77.5,29.95,South,180,1.3,1.3,78,0.00,,---,0.10,VWS V13.01,2013-08-26 12:55:00,
2013-08-26 08:56:00,85.1,77.5,29.95,ENE,68,6.2,6.2,78,0.02,,---,0.12,VWS V13.01,2013-08-26 12:56:00,
2013-08-26 08:57:00,85.1,77.5,29.95,SSE,158,3.8,3.8,78,0.02,,---,0.12,VWS V13.01,2013-08-26 12:57:00,
2013-08-26 09:00:00,84.9,77.7,29.95,ENE,68,0.0,0.0,79,0.02,,---,0.12,VWS V13.01,2013-08-26 13:00:00,
2013-08-26 09:01:00,84.9,77.7,29.95,ESE,112,4.6,4.6,79,0.02,,---,0.12,VWS V13.01,2013-08-26 13:01:00,
2013-08-26 09:02:00,84.9,77.7,29.95,ENE,68,0.0,0.0,79,0.02,,---,0.12,VWS V13.01,2013-08-26 13:02:00,
2013-08-26 09:05:00,84.9,78.0,29.95,ESE,112,6.7,6.7,80,0.02,,---,0.12,VWS V13.01,2013-08-26 13:05:00,
2013-08-26 09:06:00,84.9,78.0,29.95,SE,135,1.5,1.5,80,0.02,,---,0.12,VWS V13.01,2013-08-26 13:06:00,
2013-08-26 09:07:00,84.9,78.0,29.95,ENE,68,0.8,0.8,80,0.02,,---,0.12,VWS V13.01,2013-08-26 13:07:00,
2013-08-26 09:08:00,84.9,78.0,29.95,ENE,68,0.8,0.8,80,0.02,,---,0.12,VWS V13.01,2013-08-26 13:08:00,
2013-08-26 09:10:00,84.7,77.8,29.95,ENE,68,0.8,0.8,80,0.02,,---,0.12,VWS V13.01,2013-08-26 13:10:00,
2013-08-26 09:11:00,84.7,77.8,29.95,North,0,0.0,0.0,80,0.02,,---,0.12,VWS V13.01,2013-08-26 13:11:00,
2013-08-26 09:12:00,84.7,77.8,29.95,SE,135,3.1,3.1,80,0.02,,---,0.12,VWS V13.01,2013-08-26 13:12:00,
2013-08-26 09:13:00,84.7,77.8,29.95,SE,135,3.1,3.1,80,0.02,,---,0.12,VWS V13.01,2013-08-26 13:13:00,
2013-08-26 09:15:00,84.7,77.8,29.95,ENE,68,4.2,4.2,80,0.02,,---,0.12,VWS V13.01,2013-08-26 13:15:00,
2013-08-26 09:16:00,84.7,77.8,29.95,ESE,112,4.0,4.0,80,0.02,,---,0.12,VWS V13.01,2013-08-26 13:16:00,
2013-08-26 09:17:00,84.7,77.8,29.95,NE,45,7.6,7.6,80,0.02,,---,0.12,VWS V13.01,2013-08-26 13:17:00,
2013-08-26 09:18:00,84.7,77.8,29.95,NE,45,7.6,7.6,80,0.02,,---,0.12,VWS V13.01,2013-08-26 13:18:00,
2013-08-26 09:20:00,84.9,78.0,29.95,East,90,4.0,4.0,80,0.02,,---,0.12,VWS V13.01,2013-08-26 13:20:00,
2013-08-26 09:21:00,84.9,78.0,29.95,NNE,22,3.8,3.8,80,0.02,,---,0.12,VWS V13.01,2013-08-26 13:21:00,
2013-08-26 09:22:00,84.9,78.0,29.95,ENE,68,8.5,8.5,80,0.02,,---,0.12,VWS V13.01,2013-08-26 13:22:00,
2013-08-26 09:23:00,85.1,78.2,29.95,North,0,0.0,0.0,80,0.02,,---,0.12,VWS V13.01,2013-08-26 13:23:00,
2013-08-26 09:25:00,85.1,78.2,29.95,NE,45,10.0,10.0,80,0.02,,---,0.12,VWS V13.01,2013-08-26 13:25:00,
2013-08-26 09:26:00,85.2,77.9,29.95,East,90,7.6,7.6,79,0.02,,---,0.12,VWS V13.01,2013-08-26 13:26:00,
2013-08-26 09:27:00,85.2,77.9,29.95,ENE,68,5.3,5.3,79,0.02,,---,0.12,VWS V13.01,2013-08-26 13:27:00,
2013-08-26 09:28:00,85.2,77.9,29.95,ENE,68,4.6,4.6,79,0.02,,---,0.12,VWS V13.01,2013-08-26 13:28:00,
2013-08-26 09:30:00,85.2,77.6,29.95,East,90,5.8,5.8,78,0.02,,---,0.12,VWS V13.01,2013-08-26 13:30:00,
2013-08-26 09:32:00,85.4,77.8,29.95,East,90,5.3,5.3,78,0.02,,---,0.12,VWS V13.01,2013-08-26 13:32:00,
2013-08-26 09:33:00,85.6,78.0,29.95,East,90,3.8,3.8,78,0.02,,---,0.12,VWS V13.01,2013-08-26 13:33:00,
2013-08-26 09:35:00,85.6,78.0,29.95,ENE,68,10.9,10.9,78,0.02,,---,0.12,VWS V13.01,2013-08-26 13:35:00,
2013-08-26 09:37:00,85.8,78.2,29.95,East,90,10.5,10.5,78,0.02,,---,0.12,VWS V13.01,2013-08-26 13:37:00,
2013-08-26 09:38:00,85.8,78.2,29.95,ESE,112,7.6,7.6,78,0.02,,---,0.12,VWS V13.01,2013-08-26 13:38:00,
2013-08-26 09:41:00,85.8,78.2,29.95,ESE,112,2.4,2.4,78,0.02,,---,0.12,VWS V13.01,2013-08-26 13:41:00,
2013-08-26 09:42:00,85.8,78.2,29.95,East,90,2.4,2.4,78,0.02,,---,0.12,VWS V13.01,2013-08-26 13:42:00,
2013-08-26 09:43:00,85.8,77.8,29.95,ESE,112,4.2,4.2,77,0.02,,---,0.12,VWS V13.01,2013-08-26 13:43:00,
2013-08-26 09:46:00,85.8,77.8,29.95,ESE,112,4.6,4.6,77,0.02,,---,0.12,VWS V13.01,2013-08-26 13:46:00,
2013-08-26 09:47:00,86.1,78.1,29.95,East,90,5.3,5.3,77,0.02,,---,0.12,VWS V13.01,2013-08-26 13:47:00,
2013-08-26 09:48:00,86.1,77.7,29.95,East,90,8.9,8.9,76,0.02,,---,0.12,VWS V13.01,2013-08-26 13:48:00,
2013-08-26 09:51:00,86.3,77.8,29.95,ESE,112,0.0,0.0,76,0.02,,---,0.12,VWS V13.01,2013-08-26 13:51:00,
2013-08-26 09:52:00,86.3,77.8,29.95,ESE,112,0.0,0.0,76,0.02,,---,0.12,VWS V13.01,2013-08-26 13:52:00,
2013-08-26 09:53:00,86.3,77.8,29.95,ESE,112,0.0,0.0,76,0.02,,---,0.12,VWS V13.01,2013-08-26 13:53:00,
2013-08-26 09:54:00,86.3,77.8,29.95,NE,45,2.2,2.2,76,0.00,,---,0.12,VWS V13.01,2013-08-26 13:54:00,
2013-08-26 09:56:00,86.5,78.0,29.95,East,90,7.3,8.7,76,0.00,,---,0.00,VWS V13.01,2013-08-26 13:56:00,
2013-08-26 09:57:00,86.5,78.0,29.95,NE,45,4.4,4.4,76,0.00,,---,0.12,VWS V13.01,2013-08-26 13:57:00,
2013-08-26 09:58:00,86.5,78.0,29.95,NE,45,4.4,4.4,76,0.00,,---,0.12,VWS V13.01,2013-08-26 13:58:00,
2013-08-26 09:59:00,86.7,77.8,29.95,ENE,68,8.0,8.0,75,0.00,,---,0.12,VWS V13.01,2013-08-26 13:59:00,
2013-08-26 10:01:00,86.7,77.8,29.95,NE,45,3.8,3.8,75,0.00,,---,0.12,VWS V13.01,2013-08-26 14:01:00,
2013-08-26 10:02:00,86.7,77.8,29.95,ENE,68,12.3,12.3,75,0.00,,---,0.12,VWS V13.01,2013-08-26 14:02:00,
2013-08-26 10:03:00,86.7,77.8,29.95,ENE,68,12.3,12.3,75,0.00,,---,0.12,VWS V13.01,2013-08-26 14:03:00,
2013-08-26 10:04:00,86.7,77.8,29.96,NE,45,12.9,12.9,75,0.00,,---,0.12,VWS V13.01,2013-08-26 14:04:00,
2013-08-26 10:06:00,86.7,77.8,29.96,ENE,68,18.3,18.3,75,0.00,,---,0.12,VWS V13.01,2013-08-26 14:06:00,
2013-08-26 10:07:00,86.7,77.8,29.96,ENE,68,5.8,5.8,75,0.00,,---,0.12,VWS V13.01,2013-08-26 14:07:00,
2013-08-26 10:08:00,86.7,77.8,29.96,ENE,68,5.8,5.8,75,0.00,,---,0.12,VWS V13.01,2013-08-26 14:08:00,
2013-08-26 10:09:00,86.7,77.8,29.96,NE,45,7.6,7.6,75,0.00,,---,0.12,VWS V13.01,2013-08-26 14:09:00,
2013-08-26 10:11:00,86.7,77.8,29.96,East,90,9.8,9.8,75,0.00,,---,0.12,VWS V13.01,2013-08-26 14:11:00,
2013-08-26 10:12:00,86.7,77.8,29.96,ENE,68,9.8,9.8,75,0.00,,---,0.12,VWS V13.01,2013-08-26 14:12:00,
2013-08-26 10:13:00,86.7,77.8,29.96,ENE,68,9.8,9.8,75,0.00,,---,0.12,VWS V13.01,2013-08-26 14:13:00,
2013-08-26 10:14:00,86.7,77.8,29.96,SE,135,10.5,10.5,75,0.00,,---,0.12,VWS V13.01,2013-08-26 14:14:00,
2013-08-26 10:16:00,86.7,77.8,29.96,NE,45,1.7,1.7,75,0.00,,---,0.12,VWS V13.01,2013-08-26 14:16:00,
2013-08-26 10:17:00,86.9,78.0,29.96,ENE,68,3.8,3.8,75,0.00,,---,0.12,VWS V13.01,2013-08-26 14:17:00,
2013-08-26 10:18:00,86.9,78.0,29.96,ENE,68,3.8,3.8,75,0.00,,---,0.12,VWS V13.01,2013-08-26 14:18:00,
2013-08-26 10:19:00,87.0,78.1,29.96,NNE,22,4.0,4.0,75,0.00,,---,0.12,VWS V13.01,2013-08-26 14:19:00,
2013-08-26 10:21:00,87.0,78.1,29.96,SE,135,7.6,7.6,75,0.00,,---,0.12,VWS V13.01,2013-08-26 14:21:00,
2013-08-26 10:22:00,87.0,78.1,29.96,ENE,68,9.1,9.1,75,0.00,,---,0.12,VWS V13.01,2013-08-26 14:22:00,
2013-08-26 10:23:00,87.0,78.1,29.96,ENE,68,9.1,9.1,75,0.00,,---,0.12,VWS V13.01,2013-08-26 14:23:00,
2013-08-26 10:24:00,87.0,77.7,29.96,East,90,9.6,9.6,74,0.00,,---,0.12,VWS V13.01,2013-08-26 14:24:00,
2013-08-26 10:27:00,87.0,77.7,29.96,ENE,68,5.1,5.1,74,0.00,,---,0.12,VWS V13.01,2013-08-26 14:27:00,
2013-08-26 10:28:00,87.2,77.9,29.95,ESE,112,2.6,2.6,74,0.00,,---,0.12,VWS V13.01,2013-08-26 14:28:00,
2013-08-26 10:30:00,87.2,77.9,29.96,SE,135,4.4,4.4,74,0.00,,---,0.12,VWS V13.01,2013-08-26 14:30:00,
2013-08-26 10:32:00,87.4,78.1,29.96,ENE,68,4.0,4.0,74,0.00,,---,0.12,VWS V13.01,2013-08-26 14:32:00,
2013-08-26 10:33:00,87.4,78.1,29.96,ENE,68,9.8,9.8,74,0.00,,---,0.12,VWS V13.01,2013-08-26 14:33:00,
2013-08-26 10:35:00,87.4,78.1,29.96,ENE,68,9.8,9.8,74,0.00,,---,0.12,VWS V13.01,2013-08-26 14:35:00,
2013-08-26 10:37:00,87.6,77.9,29.96,ENE,68,1.7,1.7,73,0.00,,---,0.12,VWS V13.01,2013-08-26 14:37:00,
2013-08-26 10:38:00,87.6,77.9,29.96,ENE,68,8.9,8.9,73,0.00,,---,0.12,VWS V13.01,2013-08-26 14:38:00,
2013-08-26 10:39:00,87.6,77.9,29.96,ENE,68,10.5,10.5,73,0.00,,---,0.12,VWS V13.01,2013-08-26 14:39:00,
2013-08-26 10:40:00,87.6,77.9,29.96,East,90,2.6,2.6,73,0.00,,---,0.12,VWS V13.01,2013-08-26 14:40:00,
2013-08-26 10:42:00,87.6,77.9,29.95,NE,45,10.5,13.1,73,0.00,,---,0.12,VWS V13.01,2013-08-26 14:42:00,
2013-08-26 10:43:00,87.6,77.9,29.95,NE,45,10.5,10.5,73,0.00,,---,0.12,VWS V13.01,2013-08-26 14:43:00,
2013-08-26 10:44:00,87.6,77.5,29.96,NE,45,8.9,8.9,72,0.00,,---,0.12,VWS V13.01,2013-08-26 14:44:00,
2013-08-26 10:45:00,87.6,77.5,29.95,ESE,112,6.4,6.4,72,0.00,,---,0.12,VWS V13.01,2013-08-26 14:45:00,
2013-08-26 10:47:00,87.6,77.5,29.95,ENE,68,9.1,9.1,72,0.00,,---,0.12,VWS V13.01,2013-08-26 14:47:00,
2013-08-26 10:48:00,87.6,77.5,29.95,ENE,68,9.1,9.1,72,0.00,,---,0.12,VWS V13.01,2013-08-26 14:48:00,
2013-08-26 10:49:00,87.6,77.5,29.95,East,90,8.5,8.5,72,0.00,,---,0.12,VWS V13.01,2013-08-26 14:49:00,
2013-08-26 10:50:00,87.8,77.2,29.95,ENE,68,8.2,8.2,71,0.00,,---,0.12,VWS V13.01,2013-08-26 14:50:00,
2013-08-26 10:52:00,87.9,77.3,29.95,ENE,68,12.0,12.0,71,0.00,,---,0.12,VWS V13.01,2013-08-26 14:52:00,
2013-08-26 10:53:00,87.9,77.3,29.95,ENE,68,12.0,12.0,71,0.00,,---,0.12,VWS V13.01,2013-08-26 14:53:00,
2013-08-26 10:54:00,87.9,77.3,29.95,ENE,68,7.3,9.1,71,0.00,,---,0.12,VWS V13.01,2013-08-26 14:54:00,
2013-08-26 10:55:00,87.9,77.3,29.95,ENE,68,10.9,10.9,71,0.00,,---,0.12,VWS V13.01,2013-08-26 14:55:00,
2013-08-26 10:57:00,87.9,77.3,29.95,ENE,68,5.1,5.1,71,0.00,,---,0.12,VWS V13.01,2013-08-26 14:57:00,
2013-08-26 10:58:00,87.9,77.3,29.95,ENE,68,5.1,5.1,71,0.00,,---,0.12,VWS V13.01,2013-08-26 14:58:00,
2013-08-26 10:59:00,88.1,77.9,29.95,ESE,112,8.2,8.2,72,0.00,,---,0.12,VWS V13.01,2013-08-26 14:59:00,
2013-08-26 11:00:00,88.1,77.9,29.95,East,90,4.0,4.0,72,0.00,,---,0.12,VWS V13.01,2013-08-26 15:00:00,
2013-08-26 11:02:00,88.1,78.4,29.95,ENE,68,12.0,12.0,73,0.00,,---,0.12,VWS V13.01,2013-08-26 15:02:00,
2013-08-26 11:03:00,88.3,78.6,29.95,ESE,112,6.4,12.0,73,0.00,,---,0.12,VWS V13.01,2013-08-26 15:03:00,
2013-08-26 11:04:00,88.1,78.8,29.95,ESE,112,10.2,10.2,74,0.00,,---,0.12,VWS V13.01,2013-08-26 15:04:00,
2013-08-26 11:05:00,88.3,78.6,29.94,ENE,68,6.7,6.7,73,0.00,,---,0.12,VWS V13.01,2013-08-26 15:05:00,
2013-08-26 11:07:00,88.3,78.6,29.94,ESE,112,10.5,10.5,73,0.00,,---,0.12,VWS V13.01,2013-08-26 15:07:00,
2013-08-26 11:08:00,88.3,78.6,29.94,East,90,10.5,10.5,73,0.00,,---,0.12,VWS V13.01,2013-08-26 15:08:00,
2013-08-26 11:09:00,88.3,78.6,29.95,ENE,68,9.8,9.8,73,0.00,,---,0.12,VWS V13.01,2013-08-26 15:09:00,
2013-08-26 11:10:00,88.3,78.6,29.95,ESE,112,7.8,7.8,73,0.00,,---,0.12,VWS V13.01,2013-08-26 15:10:00,
2013-08-26 11:13:00,88.3,78.6,29.95,ENE,68,9.8,9.8,73,0.00,,---,0.12,VWS V13.01,2013-08-26 15:13:00,
2013-08-26 11:14:00,88.3,78.6,29.95,NE,45,15.2,15.2,73,0.00,,---,0.12,VWS V13.01,2013-08-26 15:14:00,
2013-08-26 11:15:00,88.3,78.6,29.95,North,0,3.8,3.8,73,0.00,,---,0.12,VWS V13.01,2013-08-26 15:15:00,
2013-08-26 11:18:00,88.3,78.6,29.94,East,90,3.5,3.5,73,0.00,,---,0.12,VWS V13.01,2013-08-26 15:18:00,
2013-08-26 11:19:00,88.3,78.6,29.95,East,90,6.2,6.2,73,0.00,,---,0.12,VWS V13.01,2013-08-26 15:19:00,
2013-08-26 11:20:00,88.3,78.6,29.95,NNE,22,6.9,6.9,73,0.00,,---,0.12,VWS V13.01,2013-08-26 15:20:00,
2013-08-26 11:23:00,88.3,78.6,29.95,ESE,112,12.0,12.0,73,0.00,,---,0.12,VWS V13.01,2013-08-26 15:23:00,
2013-08-26 11:24:00,88.3,78.6,29.95,ENE,68,12.5,12.5,73,0.00,,---,0.12,VWS V13.01,2013-08-26 15:24:00,
2013-08-26 11:26:00,88.3,78.6,29.94,ENE,68,8.2,8.2,73,0.00,,---,0.12,VWS V13.01,2013-08-26 15:26:00,
2013-08-26 11:28:00,88.5,78.7,29.94,ENE,68,6.7,6.7,73,0.00,,---,0.12,VWS V13.01,2013-08-26 15:28:00,
2013-08-26 11:29:00,88.5,78.7,29.95,ENE,68,8.7,8.7,73,0.00,,---,0.12,VWS V13.01,2013-08-26 15:29:00,
2013-08-26 11:31:00,88.5,78.7,29.95,East,90,14.9,14.9,73,0.00,,---,0.12,VWS V13.01,2013-08-26 15:31:00,
2013-08-26 11:33:00,88.5,78.3,29.95,ENE,68,5.1,5.1,72,0.00,,---,0.12,VWS V13.01,2013-08-26 15:33:00,
2013-08-26 11:34:00,88.5,78.3,29.95,East,90,5.3,5.3,72,0.00,,---,0.12,VWS V13.01,2013-08-26 15:34:00,
2013-08-26 11:36:00,88.5,78.3,29.94,East,90,5.8,5.8,72,0.00,,---,0.12,VWS V13.01,2013-08-26 15:36:00,
2013-08-26 11:38:00,88.5,78.7,29.94,ENE,68,10.9,10.9,73,0.00,,---,0.12,VWS V13.01,2013-08-26 15:38:00,
2013-08-26 11:39:00,88.7,78.5,29.94,East,90,12.3,12.3,72,0.00,,---,0.12,VWS V13.01,2013-08-26 15:39:00,
2013-08-26 11:40:00,88.7,78.5,29.94,East,90,14.9,14.9,72,0.00,,---,0.12,VWS V13.01,2013-08-26 15:40:00,
2013-08-26 11:41:00,88.7,78.5,29.94,ESE,112,8.9,11.1,72,0.00,,---,0.12,VWS V13.01,2013-08-26 15:41:00,
2013-08-26 11:43:00,88.8,78.6,29.94,ENE,68,15.2,15.2,72,0.00,,---,0.12,VWS V13.01,2013-08-26 15:43:00,
2013-08-26 11:44:00,88.8,78.6,29.94,ENE,68,15.2,15.2,72,0.00,,---,0.12,VWS V13.01,2013-08-26 15:44:00,
2013-08-26 11:46:00,88.8,78.6,29.94,ENE,68,3.8,3.8,72,0.00,,---,0.12,VWS V13.01,2013-08-26 15:46:00,
2013-08-26 11:48:00,88.8,78.6,29.94,ENE,68,8.5,8.5,72,0.00,,---,0.12,VWS V13.01,2013-08-26 15:48:00,
2013-08-26 11:49:00,88.8,78.6,29.94,ENE,68,8.5,8.5,72,0.00,,---,0.12,VWS V13.01,2013-08-26 15:49:00,
2013-08-26 11:50:00,88.8,78.6,29.94,ESE,112,8.9,8.9,72,0.00,,---,0.12,VWS V13.01,2013-08-26 15:50:00,
2013-08-26 11:51:00,89.0,78.8,29.94,ENE,68,10.2,10.2,72,0.00,,---,0.12,VWS V13.01,2013-08-26 15:51:00,
2013-08-26 11:53:00,89.2,79.0,29.94,ENE,68,8.2,8.2,72,0.00,,---,0.12,VWS V13.01,2013-08-26 15:53:00,
2013-08-26 11:54:00,89.2,79.0,29.94,ENE,68,8.2,8.2,72,0.00,,---,0.12,VWS V13.01,2013-08-26 15:54:00,
2013-08-26 11:55:00,89.2,79.0,29.94,ENE,68,4.9,4.9,72,0.00,,---,0.12,VWS V13.01,2013-08-26 15:55:00,
2013-08-26 11:56:00,89.2,78.6,29.93,SE,135,7.1,7.1,71,0.00,,---,0.12,VWS V13.01,2013-08-26 15:56:00,
2013-08-26 11:58:00,89.4,78.8,29.93,East,90,10.5,10.5,71,0.00,,---,0.12,VWS V13.01,2013-08-26 15:58:00,
2013-08-26 11:59:00,89.4,78.8,29.93,East,90,10.5,10.5,71,0.00,,---,0.12,VWS V13.01,2013-08-26 15:59:00,
2013-08-26 12:00:00,89.4,78.3,29.94,ENE,68,14.0,14.0,70,0.00,,---,0.12,VWS V13.01,2013-08-26 16:00:00,
2013-08-26 12:01:00,89.6,78.5,29.94,ENE,68,3.3,3.3,70,0.00,,---,0.12,VWS V13.01,2013-08-26 16:01:00,
2013-08-26 12:03:00,89.6,78.1,29.93,NE,45,6.9,6.9,69,0.00,,---,0.12,VWS V13.01,2013-08-26 16:03:00,
2013-08-26 12:04:00,89.6,78.1,29.93,NE,45,6.9,6.9,69,0.00,,---,0.12,VWS V13.01,2013-08-26 16:04:00,
2013-08-26 12:05:00,89.7,78.2,29.93,ENE,68,10.7,10.7,69,0.00,,---,0.12,VWS V13.01,2013-08-26 16:05:00,
2013-08-26 12:06:00,89.7,78.2,29.93,ENE,68,6.4,6.4,69,0.00,,---,0.12,VWS V13.01,2013-08-26 16:06:00,
2013-08-26 12:08:00,89.7,78.2,29.93,ESE,112,12.0,12.0,69,0.00,,---,0.12,VWS V13.01,2013-08-26 16:08:00,
2013-08-26 12:09:00,89.7,78.2,29.93,ESE,112,12.0,12.0,69,0.00,,---,0.12,VWS V13.01,2013-08-26 16:09:00,
2013-08-26 12:10:00,89.7,78.2,29.93,ESE,112,12.3,12.3,69,0.00,,---,0.12,VWS V13.01,2013-08-26 16:10:00,
2013-08-26 12:11:00,89.7,78.2,29.93,East,90,14.0,14.0,69,0.00,,---,0.12,VWS V13.01,2013-08-26 16:11:00,
2013-08-26 12:14:00,89.7,77.7,29.93,ENE,68,11.4,11.4,68,0.00,,---,0.12,VWS V13.01,2013-08-26 16:14:00,
2013-08-26 12:15:00,89.7,77.7,29.93,ENE,68,11.6,11.6,68,0.00,,---,0.12,VWS V13.01,2013-08-26 16:15:00,
2013-08-26 12:16:00,89.7,78.2,29.92,NE,45,15.8,15.8,69,0.00,,---,0.12,VWS V13.01,2013-08-26 16:16:00,
2013-08-26 12:19:00,89.7,78.2,29.92,ENE,68,15.2,15.2,69,0.00,,---,0.12,VWS V13.01,2013-08-26 16:19:00,
2013-08-26 12:20:00,89.7,78.2,29.93,ENE,68,11.8,11.8,69,0.00,,---,0.12,VWS V13.01,2013-08-26 16:20:00,
2013-08-26 12:21:00,89.7,77.7,29.93,East,90,6.7,6.7,68,0.00,,---,0.12,VWS V13.01,2013-08-26 16:21:00,
2013-08-26 12:24:00,89.6,77.6,29.93,East,90,10.7,10.7,68,0.00,,---,0.12,VWS V13.01,2013-08-26 16:24:00,
2013-08-26 12:25:00,89.6,77.6,29.93,NE,45,9.3,9.3,68,0.00,,---,0.12,VWS V13.01,2013-08-26 16:25:00,
2013-08-26 12:26:00,89.6,77.6,29.92,ENE,68,10.2,10.2,68,0.00,,---,0.12,VWS V13.01,2013-08-26 16:26:00,
2013-08-26 12:29:00,89.7,78.2,29.92,ENE,68,10.5,10.5,69,0.00,,---,0.12,VWS V13.01,2013-08-26 16:29:00,
2013-08-26 12:30:00,89.6,77.6,29.92,SE,135,4.4,4.4,68,0.00,,---,0.12,VWS V13.01,2013-08-26 16:30:00,
2013-08-26 12:31:00,89.7,78.2,29.92,East,90,12.0,12.0,69,0.00,,---,0.12,VWS V13.01,2013-08-26 16:31:00,
2013-08-26 12:34:00,89.7,78.2,29.92,SSE,158,7.8,7.8,69,0.00,,---,0.12,VWS V13.01,2013-08-26 16:34:00,
2013-08-26 12:35:00,89.7,78.2,29.92,ENE,68,11.4,11.4,69,0.00,,---,0.12,VWS V13.01,2013-08-26 16:35:00,
2013-08-26 12:36:00,89.9,77.9,29.92,NE,45,12.5,12.5,68,0.00,,---,0.12,VWS V13.01,2013-08-26 16:36:00,
2013-08-26 12:39:00,89.7,78.2,29.92,East,90,10.7,10.7,69,0.00,,---,0.12,VWS V13.01,2013-08-26 16:39:00,
2013-08-26 12:40:00,89.9,78.4,29.92,East,90,14.9,14.9,69,0.00,,---,0.12,VWS V13.01,2013-08-26 16:40:00,
2013-08-26 12:41:00,89.9,77.9,29.92,ENE,68,12.7,12.7,68,0.00,,---,0.12,VWS V13.01,2013-08-26 16:41:00,
2013-08-26 12:44:00,89.9,77.9,29.92,NE,45,6.7,6.7,68,0.00,,---,0.12,VWS V13.01,2013-08-26 16:44:00,
2013-08-26 12:45:00,90.1,78.1,29.92,NNE,22,8.9,8.9,68,0.00,,---,0.12,VWS V13.01,2013-08-26 16:45:00,
2013-08-26 12:47:00,90.1,78.1,29.91,ENE,68,12.9,12.9,68,0.00,,---,0.12,VWS V13.01,2013-08-26 16:47:00,
2013-08-26 12:49:00,90.1,78.1,29.92,NE,45,13.4,13.4,68,0.00,,---,0.12,VWS V13.01,2013-08-26 16:49:00,
2013-08-26 12:50:00,90.1,78.1,29.92,SE,135,9.6,9.6,68,0.00,,---,0.12,VWS V13.01,2013-08-26 16:50:00,
2013-08-26 12:51:00,90.1,78.1,29.92,SE,135,9.6,9.6,68,0.00,,---,0.12,VWS V13.01,2013-08-26 16:51:00,
2013-08-26 12:52:00,90.1,78.1,29.91,ENE,68,14.0,14.0,68,0.00,,---,0.12,VWS V13.01,2013-08-26 16:52:00,
2013-08-26 12:54:00,90.1,77.7,29.91,ENE,68,11.8,11.8,67,0.00,,---,0.12,VWS V13.01,2013-08-26 16:54:00,
2013-08-26 12:55:00,90.1,77.7,29.91,ENE,68,8.7,8.7,67,0.00,,---,0.12,VWS V13.01,2013-08-26 16:55:00,
2013-08-26 12:56:00,90.1,77.7,29.91,ENE,68,8.7,8.7,67,0.00,,---,0.12,VWS V13.01,2013-08-26 16:56:00,
2013-08-26 12:57:00,90.1,77.7,29.91,East,90,10.0,10.0,67,0.00,,---,0.12,VWS V13.01,2013-08-26 16:57:00,
2013-08-26 12:59:00,90.1,77.7,29.91,NE,45,5.1,5.1,67,0.00,,---,0.12,VWS V13.01,2013-08-26 16:59:00,
2013-08-26 13:00:00,90.1,77.7,29.91,NE,45,8.2,8.2,67,0.00,,---,0.12,VWS V13.01,2013-08-26 17:00:00,
2013-08-26 13:01:00,90.1,77.7,29.91,NE,45,8.2,8.2,67,0.00,,---,0.12,VWS V13.01,2013-08-26 17:01:00,
2013-08-26 13:02:00,90.3,77.9,29.91,SSE,158,10.7,10.7,67,0.00,,---,0.12,VWS V13.01,2013-08-26 17:02:00,
2013-08-26 13:04:00,90.3,78.3,29.90,ENE,68,7.6,7.6,68,0.00,,---,0.12,VWS V13.01,2013-08-26 17:04:00,
2013-08-26 13:05:00,90.3,78.3,29.91,ESE,112,8.5,8.5,68,0.00,,---,0.12,VWS V13.01,2013-08-26 17:05:00,
2013-08-26 13:06:00,90.3,78.3,29.91,ESE,112,8.5,8.5,68,0.00,,---,0.12,VWS V13.01,2013-08-26 17:06:00,
2013-08-26 13:07:00,90.5,78.5,29.91,ESE,112,8.2,8.2,68,0.00,,---,0.12,VWS V13.01,2013-08-26 17:07:00,
2013-08-26 13:09:00,90.5,78.5,29.91,East,90,10.7,10.7,68,0.00,,---,0.12,VWS V13.01,2013-08-26 17:09:00,
2013-08-26 13:10:00,90.5,78.5,29.91,East,90,10.7,10.7,68,0.00,,---,0.12,VWS V13.01,2013-08-26 17:10:00,
2013-08-26 13:11:00,90.6,78.6,29.91,East,90,12.9,12.9,68,0.00,,---,0.12,VWS V13.01,2013-08-26 17:11:00,
2013-08-26 13:12:00,90.6,78.6,29.91,East,90,13.8,13.8,68,0.00,,---,0.12,VWS V13.01,2013-08-26 17:12:00,
2013-08-26 13:14:00,90.8,78.8,29.91,ENE,68,8.9,8.9,68,0.00,,---,0.12,VWS V13.01,2013-08-26 17:14:00,
2013-08-26 13:15:00,90.8,78.8,29.91,ENE,68,8.9,8.9,68,0.00,,---,0.12,VWS V13.01,2013-08-26 17:15:00,
2013-08-26 13:16:00,91.0,79.0,29.90,ESE,112,13.4,13.4,68,0.00,,---,0.12,VWS V13.01,2013-08-26 17:16:00,
2013-08-26 13:17:00,91.0,79.0,29.91,ENE,68,7.3,7.3,68,0.00,,---,0.12,VWS V13.01,2013-08-26 17:17:00,
2013-08-26 13:19:00,91.2,78.7,29.91,ESE,112,17.6,17.6,67,0.00,,---,0.12,VWS V13.01,2013-08-26 17:19:00,
2013-08-26 13:20:00,91.2,78.7,29.91,ESE,112,17.6,17.6,67,0.00,,---,0.12,VWS V13.01,2013-08-26 17:20:00,
2013-08-26 13:21:00,91.2,78.7,29.91,NNE,22,3.3,3.3,67,0.00,,---,0.12,VWS V13.01,2013-08-26 17:21:00,
2013-08-26 13:22:00,91.2,78.3,29.91,ENE,68,8.2,8.2,66,0.00,,---,0.12,VWS V13.01,2013-08-26 17:22:00,
2013-08-26 13:24:00,91.2,78.3,29.90,ENE,68,7.6,7.6,66,0.00,,---,0.12,VWS V13.01,2013-08-26 17:24:00,
2013-08-26 13:25:00,91.4,78.4,29.90,East,90,9.1,9.1,66,0.00,,---,0.12,VWS V13.01,2013-08-26 17:25:00,
2013-08-26 13:26:00,91.4,78.4,29.90,East,90,9.1,9.1,66,0.00,,---,0.12,VWS V13.01,2013-08-26 17:26:00,
2013-08-26 13:27:00,91.4,78.4,29.91,ENE,68,11.6,11.6,66,0.00,,---,0.12,VWS V13.01,2013-08-26 17:27:00,
2013-08-26 13:29:00,91.5,78.5,29.90,East,90,14.7,14.7,66,0.00,,---,0.12,VWS V13.01,2013-08-26 17:29:00,
2013-08-26 13:30:00,91.5,78.5,29.90,East,90,14.0,14.7,66,0.00,,---,0.12,VWS V13.01,2013-08-26 17:30:00,
2013-08-26 13:31:00,91.5,78.5,29.90,East,90,14.0,14.0,66,0.00,,---,0.12,VWS V13.01,2013-08-26 17:31:00,
2013-08-26 13:32:00,91.5,78.5,29.90,ESE,112,12.0,12.0,66,0.00,,---,0.12,VWS V13.01,2013-08-26 17:32:00,
2013-08-26 13:35:00,91.5,78.5,29.90,ENE,68,8.9,8.9,66,0.00,,---,0.12,VWS V13.01,2013-08-26 17:35:00,
2013-08-26 13:36:00,91.4,78.4,29.90,ENE,68,13.1,13.1,66,0.00,,---,0.12,VWS V13.01,2013-08-26 17:36:00,
2013-08-26 13:37:00,91.5,78.5,29.90,ENE,68,15.6,15.6,66,0.00,,---,0.12,VWS V13.01,2013-08-26 17:37:00,
2013-08-26 13:40:00,91.5,78.5,29.90,ENE,68,11.8,11.8,66,0.00,,---,0.12,VWS V13.01,2013-08-26 17:40:00,
2013-08-26 13:41:00,91.5,78.5,29.90,East,90,12.9,18.5,66,0.00,,---,0.12,VWS V13.01,2013-08-26 17:41:00,
2013-08-26 13:43:00,91.5,78.5,29.90,East,90,12.3,12.3,66,0.00,,---,0.12,VWS V13.01,2013-08-26 17:43:00,
2013-08-26 13:45:00,91.5,78.1,29.90,East,90,9.8,9.8,65,0.00,,---,0.12,VWS V13.01,2013-08-26 17:45:00,
2013-08-26 13:46:00,91.7,78.3,29.89,East,90,13.6,13.6,65,0.00,,---,0.12,VWS V13.01,2013-08-26 17:46:00,
2013-08-26 13:48:00,91.7,78.7,29.89,ESE,112,9.6,9.6,66,0.00,,---,0.12,VWS V13.01,2013-08-26 17:48:00,
2013-08-26 13:50:00,91.7,78.3,29.90,ENE,68,12.7,12.7,65,0.00,,---,0.12,VWS V13.01,2013-08-26 17:50:00,
2013-08-26 13:51:00,91.9,78.5,29.90,ENE,68,13.8,13.8,65,0.00,,---,0.12,VWS V13.01,2013-08-26 17:51:00,
2013-08-26 13:53:00,91.9,78.5,29.90,ESE,112,17.2,17.2,65,0.00,,---,0.12,VWS V13.01,2013-08-26 17:53:00,
2013-08-26 13:55:00,91.9,78.5,29.90,ENE,68,7.1,7.1,65,0.00,,---,0.12,VWS V13.01,2013-08-26 17:55:00,
2013-08-26 13:56:00,91.9,78.5,29.90,SE,135,10.2,10.2,65,0.00,,---,0.12,VWS V13.01,2013-08-26 17:56:00,
2013-08-26 13:58:00,91.9,78.5,29.90,East,90,17.2,17.2,65,0.00,,---,0.12,VWS V13.01,2013-08-26 17:58:00,
2013-08-26 14:00:00,91.9,78.0,29.90,ENE,68,14.7,14.7,64,0.00,,---,0.12,VWS V13.01,2013-08-26 18:00:00,
2013-08-26 14:01:00,91.9,78.5,29.90,ENE,68,12.0,12.0,65,0.00,,---,0.12,VWS V13.01,2013-08-26 18:01:00,
2013-08-26 14:03:00,91.9,78.5,29.90,East,90,10.2,10.2,65,0.00,,---,0.12,VWS V13.01,2013-08-26 18:03:00,
2013-08-26 14:05:00,91.5,78.1,29.89,East,90,18.3,18.3,65,0.00,,---,0.12,VWS V13.01,2013-08-26 18:05:00,
2013-08-26 14:06:00,91.5,78.1,29.89,East,90,18.3,18.3,65,0.00,,---,0.12,VWS V13.01,2013-08-26 18:06:00,
2013-08-26 14:08:00,91.2,77.8,29.90,ENE,68,4.6,4.6,65,0.00,,---,0.12,VWS V13.01,2013-08-26 18:08:00,
2013-08-26 14:10:00,90.6,77.7,29.90,ESE,112,11.1,11.1,66,0.00,,---,0.12,VWS V13.01,2013-08-26 18:10:00,
2013-08-26 14:11:00,90.6,77.7,29.90,ESE,112,11.1,11.1,66,0.00,,---,0.12,VWS V13.01,2013-08-26 18:11:00,
2013-08-26 14:13:00,90.3,77.9,29.89,NE,45,10.9,10.9,67,0.00,,---,0.12,VWS V13.01,2013-08-26 18:13:00,
2013-08-26 14:15:00,90.1,77.7,29.89,East,90,10.5,10.5,67,0.00,,---,0.12,VWS V13.01,2013-08-26 18:15:00,
2013-08-26 14:16:00,90.1,77.7,29.89,East,90,10.5,10.5,67,0.00,,---,0.12,VWS V13.01,2013-08-26 18:16:00,
2013-08-26 14:17:00,89.9,77.5,29.90,East,90,6.7,6.7,67,0.00,,---,0.12,VWS V13.01,2013-08-26 18:17:00,
2013-08-26 14:18:00,89.9,77.5,29.90,NNE,22,8.7,8.7,67,0.00,,---,0.12,VWS V13.01,2013-08-26 18:18:00,
2013-08-26 14:20:00,89.6,77.2,29.90,NE,45,12.3,12.3,67,0.00,,---,0.12,VWS V13.01,2013-08-26 18:20:00,
2013-08-26 14:21:00,89.6,77.2,29.90,NE,45,12.3,12.3,67,0.00,,---,0.12,VWS V13.01,2013-08-26 18:21:00,
2013-08-26 14:22:00,89.4,77.4,29.90,NNE,22,3.5,3.5,68,0.00,,---,0.12,VWS V13.01,2013-08-26 18:22:00,
2013-08-26 14:23:00,89.4,77.4,29.90,East,90,4.6,4.6,68,0.00,,---,0.12,VWS V13.01,2013-08-26 18:23:00,
2013-08-26 14:25:00,89.4,77.4,29.90,NE,45,10.9,10.9,68,0.00,,---,0.12,VWS V13.01,2013-08-26 18:25:00,
2013-08-26 14:26:00,89.4,77.4,29.90,NE,45,10.9,10.9,68,0.00,,---,0.12,VWS V13.01,2013-08-26 18:26:00,
2013-08-26 14:27:00,89.4,77.4,29.89,NE,45,9.1,9.1,68,0.00,,---,0.12,VWS V13.01,2013-08-26 18:27:00,
2013-08-26 14:28:00,89.2,77.3,29.90,East,90,5.3,5.3,68,0.00,,---,0.12,VWS V13.01,2013-08-26 18:28:00,
2013-08-26 14:30:00,89.2,77.7,29.90,ESE,112,6.0,6.0,69,0.00,,---,0.12,VWS V13.01,2013-08-26 18:30:00,
2013-08-26 14:31:00,89.2,77.7,29.90,ESE,112,6.0,6.0,69,0.00,,---,0.12,VWS V13.01,2013-08-26 18:31:00,
2013-08-26 14:32:00,89.2,77.7,29.90,ENE,68,8.5,8.5,69,0.00,,---,0.12,VWS V13.01,2013-08-26 18:32:00,
2013-08-26 14:33:00,89.0,77.5,29.90,NNE,22,4.2,4.2,69,0.00,,---,0.12,VWS V13.01,2013-08-26 18:33:00,
2013-08-26 14:35:00,88.8,77.3,29.89,East,90,10.5,10.5,69,0.00,,---,0.12,VWS V13.01,2013-08-26 18:35:00,
2013-08-26 14:36:00,88.8,77.3,29.89,East,90,10.5,10.5,69,0.00,,---,0.12,VWS V13.01,2013-08-26 18:36:00,
2013-08-26 14:37:00,88.8,77.3,29.90,ENE,68,6.4,10.0,69,0.00,,---,0.12,VWS V13.01,2013-08-26 18:37:00,
2013-08-26 14:38:00,88.8,77.3,29.90,ENE,68,6.4,6.4,69,0.00,,---,0.12,VWS V13.01,2013-08-26 18:38:00,
2013-08-26 14:40:00,88.7,77.7,29.90,ENE,68,12.3,12.3,70,0.00,,---,0.12,VWS V13.01,2013-08-26 18:40:00,
2013-08-26 14:41:00,88.7,77.7,29.89,NE,45,10.5,12.3,70,0.00,,---,0.12,VWS V13.01,2013-08-26 18:41:00,
2013-08-26 14:42:00,88.7,77.7,29.89,East,90,1.7,1.7,70,0.00,,---,0.12,VWS V13.01,2013-08-26 18:42:00,
2013-08-26 14:43:00,88.7,77.7,29.89,East,90,1.7,1.7,70,0.00,,---,0.12,VWS V13.01,2013-08-26 18:43:00,
2013-08-26 14:45:00,88.7,77.7,29.89,ENE,68,7.8,7.8,70,0.00,,---,0.12,VWS V13.01,2013-08-26 18:45:00,
2013-08-26 14:46:00,88.7,77.7,29.89,NE,45,5.3,7.8,70,0.00,,---,0.12,VWS V13.01,2013-08-26 18:46:00,
2013-08-26 14:47:00,88.7,77.7,29.89,East,90,4.6,4.6,70,0.00,,---,0.12,VWS V13.01,2013-08-26 18:47:00,
2013-08-26 14:48:00,88.7,77.7,29.89,East,90,4.6,4.6,70,0.00,,---,0.12,VWS V13.01,2013-08-26 18:48:00,
2013-08-26 14:50:00,88.8,77.8,29.89,East,90,9.8,9.8,70,0.00,,---,0.12,VWS V13.01,2013-08-26 18:50:00,
2013-08-26 14:51:00,88.8,77.8,29.89,ENE,68,5.8,9.8,70,0.00,,---,0.12,VWS V13.01,2013-08-26 18:51:00,
2013-08-26 14:52:00,88.8,77.8,29.89,East,90,5.8,5.8,70,0.00,,---,0.12,VWS V13.01,2013-08-26 18:52:00,
2013-08-26 14:53:00,88.8,77.8,29.89,East,90,5.8,5.8,70,0.00,,---,0.12,VWS V13.01,2013-08-26 18:53:00,
2013-08-26 14:56:00,88.8,78.2,29.88,ENE,68,6.9,6.9,71,0.00,,---,0.12,VWS V13.01,2013-08-26 18:56:00,
2013-08-26 14:57:00,88.8,77.8,29.89,ESE,112,2.4,2.4,70,0.00,,---,0.12,VWS V13.01,2013-08-26 18:57:00,
2013-08-26 14:58:00,88.8,77.8,29.89,ESE,112,2.4,2.4,70,0.00,,---,0.12,VWS V13.01,2013-08-26 18:58:00,
2013-08-26 15:01:00,88.8,77.8,29.88,ESE,112,2.9,2.9,70,0.00,,---,0.12,VWS V13.01,2013-08-26 19:01:00,
2013-08-26 15:02:00,88.8,77.8,29.88,ENE,68,4.6,4.6,70,0.00,,---,0.12,VWS V13.01,2013-08-26 19:02:00,
2013-08-26 15:03:00,88.8,77.8,29.88,ENE,68,5.1,5.1,70,0.00,,---,0.12,VWS V13.01,2013-08-26 19:03:00,
2013-08-26 15:04:00,88.8,77.8,29.88,ENE,68,5.1,5.1,70,0.00,,---,0.12,VWS V13.01,2013-08-26 19:04:00,
2013-08-26 15:06:00,88.8,77.8,29.88,East,90,8.0,8.0,70,0.00,,---,0.12,VWS V13.01,2013-08-26 19:06:00,
2013-08-26 15:07:00,88.8,77.8,29.88,ENE,68,7.8,7.8,70,0.00,,---,0.12,VWS V13.01,2013-08-26 19:07:00,
2013-08-26 15:08:00,88.8,77.8,29.88,ENE,68,7.1,7.1,70,0.00,,---,0.12,VWS V13.01,2013-08-26 19:08:00,
2013-08-26 15:09:00,88.8,77.8,29.88,ENE,68,7.1,7.1,70,0.00,,---,0.12,VWS V13.01,2013-08-26 19:09:00,
2013-08-26 15:11:00,88.8,78.2,29.88,East,90,10.2,10.2,71,0.00,,---,0.12,VWS V13.01,2013-08-26 19:11:00,
2013-08-26 15:12:00,88.8,78.2,29.88,ESE,112,5.8,5.8,71,0.00,,---,0.12,VWS V13.01,2013-08-26 19:12:00,
2013-08-26 15:13:00,88.7,78.1,29.88,NE,45,8.0,8.0,71,0.00,,---,0.12,VWS V13.01,2013-08-26 19:13:00,
2013-08-26 15:14:00,88.7,78.1,29.88,NE,45,8.0,8.0,71,0.00,,---,0.12,VWS V13.01,2013-08-26 19:14:00,
2013-08-26 15:16:00,88.7,78.1,29.87,East,90,5.1,5.1,71,0.00,,---,0.12,VWS V13.01,2013-08-26 19:16:00,
2013-08-26 15:17:00,88.7,78.1,29.88,NNE,22,2.9,2.9,71,0.00,,---,0.12,VWS V13.01,2013-08-26 19:17:00,
2013-08-26 15:18:00,88.7,78.1,29.88,NE,45,0.8,0.8,71,0.00,,---,0.12,VWS V13.01,2013-08-26 19:18:00,
2013-08-26 15:19:00,88.7,78.1,29.88,NE,45,0.8,0.8,71,0.00,,---,0.12,VWS V13.01,2013-08-26 19:19:00,
2013-08-26 15:21:00,88.7,78.1,29.88,ENE,68,1.5,1.5,71,0.00,,---,0.12,VWS V13.01,2013-08-26 19:21:00,
2013-08-26 15:22:00,88.7,78.1,29.88,ESE,112,4.2,4.2,71,0.00,,---,0.12,VWS V13.01,2013-08-26 19:22:00,
2013-08-26 15:23:00,88.7,77.7,29.88,ENE,68,6.7,6.7,70,0.00,,---,0.12,VWS V13.01,2013-08-26 19:23:00,
2013-08-26 15:24:00,88.7,77.7,29.88,ENE,68,6.7,6.7,70,0.00,,---,0.12,VWS V13.01,2013-08-26 19:24:00,
2013-08-26 15:26:00,88.7,77.7,29.88,SE,135,7.8,7.8,70,0.00,,---,0.12,VWS V13.01,2013-08-26 19:26:00,
2013-08-26 15:27:00,88.7,77.7,29.88,SSE,158,4.4,4.4,70,0.00,,---,0.12,VWS V13.01,2013-08-26 19:27:00,
2013-08-26 15:28:00,88.7,77.7,29.87,ESE,112,6.9,6.9,70,0.00,,---,0.12,VWS V13.01,2013-08-26 19:28:00,
2013-08-26 15:29:00,88.7,77.7,29.87,ESE,112,6.9,6.9,70,0.00,,---,0.12,VWS V13.01,2013-08-26 19:29:00,
2013-08-26 15:31:00,88.7,77.7,29.88,East,90,10.2,10.2,70,0.00,,---,0.12,VWS V13.01,2013-08-26 19:31:00,
2013-08-26 15:32:00,88.7,77.7,29.87,ESE,112,0.0,0.0,70,0.00,,---,0.12,VWS V13.01,2013-08-26 19:32:00,
2013-08-26 15:33:00,88.7,77.7,29.88,ENE,68,5.8,5.8,70,0.00,,---,0.12,VWS V13.01,2013-08-26 19:33:00,
2013-08-26 15:34:00,88.7,77.7,29.88,ENE,68,5.8,5.8,70,0.00,,---,0.12,VWS V13.01,2013-08-26 19:34:00,
2013-08-26 15:36:00,88.7,77.7,29.87,East,90,8.0,8.0,70,0.00,,---,0.12,VWS V13.01,2013-08-26 19:36:00,
2013-08-26 15:37:00,88.7,77.7,29.87,East,90,8.0,8.0,70,0.00,,---,0.12,VWS V13.01,2013-08-26 19:37:00,
2013-08-26 15:38:00,88.7,77.7,29.87,East,90,5.1,5.1,70,0.00,,---,0.12,VWS V13.01,2013-08-26 19:38:00,
2013-08-26 15:39:00,88.7,77.7,29.87,East,90,5.1,5.1,70,0.00,,---,0.12,VWS V13.01,2013-08-26 19:39:00,
2013-08-26 15:41:00,88.7,77.7,29.87,ENE,68,2.0,2.0,70,0.00,,---,0.12,VWS V13.01,2013-08-26 19:41:00,
2013-08-26 15:42:00,88.7,77.7,29.87,ENE,68,2.0,2.0,70,0.00,,---,0.12,VWS V13.01,2013-08-26 19:42:00,
2013-08-26 15:43:00,88.7,78.1,29.87,ENE,68,7.1,7.1,71,0.00,,---,0.12,VWS V13.01,2013-08-26 19:43:00,
2013-08-26 15:44:00,88.7,78.1,29.87,ENE,68,7.1,7.1,71,0.00,,---,0.12,VWS V13.01,2013-08-26 19:44:00,
2013-08-26 15:46:00,88.7,78.1,29.87,NNE,22,3.8,3.8,71,0.00,,---,0.12,VWS V13.01,2013-08-26 19:46:00,
2013-08-26 15:47:00,88.7,78.1,29.87,NNE,22,3.8,3.8,71,0.00,,---,0.12,VWS V13.01,2013-08-26 19:47:00,
2013-08-26 15:48:00,88.7,78.1,29.87,ENE,68,6.9,6.9,71,0.00,,---,0.12,VWS V13.01,2013-08-26 19:48:00,
2013-08-26 15:49:00,88.7,78.1,29.87,ENE,68,6.9,6.9,71,0.00,,---,0.12,VWS V13.01,2013-08-26 19:49:00,
2013-08-26 15:51:00,88.7,78.1,29.87,NNE,22,1.5,1.5,71,0.00,,---,0.12,VWS V13.01,2013-08-26 19:51:00,
2013-08-26 15:52:00,88.7,78.1,29.87,NNE,22,1.5,1.5,71,0.00,,---,0.12,VWS V13.01,2013-08-26 19:52:00,
2013-08-26 15:53:00,88.7,78.1,29.87,ESE,112,2.0,2.0,71,0.00,,---,0.12,VWS V13.01,2013-08-26 19:53:00,
2013-08-26 15:54:00,88.7,78.1,29.87,NE,45,5.3,5.3,71,0.00,,---,0.12,VWS V13.01,2013-08-26 19:54:00,
2013-08-26 15:56:00,88.7,78.1,29.87,ESE,112,5.5,5.5,71,0.00,,---,0.00,VWS V13.01,2013-08-26 19:56:00,
2013-08-26 15:57:00,88.7,78.1,29.87,ESE,112,5.5,5.5,71,0.00,,---,0.12,VWS V13.01,2013-08-26 19:57:00,
2013-08-26 15:58:00,88.7,78.1,29.87,East,90,1.7,1.7,71,0.00,,---,0.12,VWS V13.01,2013-08-26 19:58:00,
2013-08-26 15:59:00,88.7,78.1,29.87,ESE,112,8.2,8.2,71,0.00,,---,0.12,VWS V13.01,2013-08-26 19:59:00,
2013-08-26 16:01:00,88.7,78.1,29.87,ENE,68,6.7,6.7,71,0.00,,---,0.12,VWS V13.01,2013-08-26 20:01:00,
2013-08-26 16:02:00,88.7,78.1,29.87,East,90,0.6,0.6,71,0.00,,---,0.12,VWS V13.01,2013-08-26 20:02:00,
2013-08-26 16:03:00,88.8,78.2,29.87,ENE,68,2.0,2.0,71,0.00,,---,0.12,VWS V13.01,2013-08-26 20:03:00,
2013-08-26 16:04:00,88.8,78.2,29.87,ENE,68,2.0,2.0,71,0.00,,---,0.12,VWS V13.01,2013-08-26 20:04:00,
2013-08-26 16:06:00,88.8,78.2,29.87,NNE,22,1.1,2.0,71,0.00,,---,0.12,VWS V13.01,2013-08-26 20:06:00,
2013-08-26 16:07:00,88.8,78.2,29.87,SE,135,2.0,2.0,71,0.00,,---,0.12,VWS V13.01,2013-08-26 20:07:00,
2013-08-26 16:08:00,88.8,78.2,29.87,SE,135,2.0,2.0,71,0.00,,---,0.12,VWS V13.01,2013-08-26 20:08:00,
2013-08-26 16:09:00,88.8,78.2,29.87,ENE,68,8.5,8.5,71,0.00,,---,0.12,VWS V13.01,2013-08-26 20:09:00,
2013-08-26 16:11:00,88.8,77.8,29.86,ENE,68,4.6,4.6,70,0.00,,---,0.12,VWS V13.01,2013-08-26 20:11:00,
2013-08-26 16:12:00,89.0,77.9,29.86,ESE,112,5.1,5.1,70,0.00,,---,0.12,VWS V13.01,2013-08-26 20:12:00,
2013-08-26 16:13:00,89.0,77.9,29.86,ESE,112,5.1,5.1,70,0.00,,---,0.12,VWS V13.01,2013-08-26 20:13:00,
2013-08-26 16:14:00,88.8,77.8,29.86,ENE,68,0.6,1.3,70,0.00,,---,0.12,VWS V13.01,2013-08-26 20:14:00,
2013-08-26 16:16:00,89.0,77.9,29.86,NE,45,4.2,4.2,70,0.00,,---,0.12,VWS V13.01,2013-08-26 20:16:00,
2013-08-26 16:17:00,89.2,78.1,29.87,ENE,68,8.7,8.7,70,0.00,,---,0.12,VWS V13.01,2013-08-26 20:17:00,
2013-08-26 16:18:00,89.2,78.1,29.87,ENE,68,8.7,8.7,70,0.00,,---,0.12,VWS V13.01,2013-08-26 20:18:00,
2013-08-26 16:19:00,89.2,78.1,29.87,ENE,68,3.5,3.5,70,0.00,,---,0.12,VWS V13.01,2013-08-26 20:19:00,
2013-08-26 16:21:00,89.2,77.7,29.86,ENE,68,2.0,2.0,69,0.00,,---,0.12,VWS V13.01,2013-08-26 20:21:00,
2013-08-26 16:22:00,89.2,77.7,29.86,NE,45,4.4,4.4,69,0.00,,---,0.12,VWS V13.01,2013-08-26 20:22:00,
2013-08-26 16:23:00,89.2,77.7,29.86,NE,45,4.4,4.4,69,0.00,,---,0.12,VWS V13.01,2013-08-26 20:23:00,
2013-08-26 16:24:00,89.2,77.7,29.86,ESE,112,3.8,3.8,69,0.00,,---,0.12,VWS V13.01,2013-08-26 20:24:00,
2013-08-26 16:26:00,89.0,77.9,29.86,SSE,158,5.8,5.8,70,0.00,,---,0.12,VWS V13.01,2013-08-26 20:26:00,
2013-08-26 16:27:00,88.8,77.8,29.86,SW,225,2.0,2.0,70,0.00,,---,0.12,VWS V13.01,2013-08-26 20:27:00,
2013-08-26 16:28:00,88.8,77.8,29.86,SW,225,2.0,2.0,70,0.00,,---,0.12,VWS V13.01,2013-08-26 20:28:00,
2013-08-26 16:29:00,89.0,77.9,29.86,East,90,4.2,4.2,70,0.00,,---,0.12,VWS V13.01,2013-08-26 20:29:00,
2013-08-26 16:31:00,88.8,77.8,29.87,East,90,7.1,7.1,70,0.00,,---,0.12,VWS V13.01,2013-08-26 20:31:00,
2013-08-26 16:32:00,88.8,77.8,29.87,East,90,4.0,4.0,70,0.00,,---,0.12,VWS V13.01,2013-08-26 20:32:00,
2013-08-26 16:33:00,88.8,77.8,29.87,East,90,4.0,4.0,70,0.00,,---,0.12,VWS V13.01,2013-08-26 20:33:00,
2013-08-26 16:34:00,89.0,77.9,29.87,ENE,68,7.8,7.8,70,0.00,,---,0.12,VWS V13.01,2013-08-26 20:34:00,
2013-08-26 16:37:00,88.8,77.8,29.87,ENE,68,1.7,1.7,70,0.00,,---,0.12,VWS V13.01,2013-08-26 20:37:00,
2013-08-26 16:38:00,88.8,77.8,29.87,ENE,68,5.8,5.8,70,0.00,,---,0.12,VWS V13.01,2013-08-26 20:38:00,
2013-08-26 16:39:00,88.8,77.8,29.87,ENE,68,9.6,9.6,70,0.00,,---,0.12,VWS V13.01,2013-08-26 20:39:00,
2013-08-26 16:42:00,88.8,77.8,29.87,SSW,202,2.9,2.9,70,0.00,,---,0.12,VWS V13.01,2013-08-26 20:42:00,
2013-08-26 16:43:00,88.7,77.7,29.87,ENE,68,6.9,6.9,70,0.00,,---,0.12,VWS V13.01,2013-08-26 20:43:00,
2013-08-26 16:44:00,88.7,77.7,29.87,East,90,6.4,6.4,70,0.00,,---,0.12,VWS V13.01,2013-08-26 20:44:00,
2013-08-26 16:47:00,88.7,77.7,29.87,ESE,112,3.8,11.6,70,0.00,,---,0.12,VWS V13.01,2013-08-26 20:47:00,
2013-08-26 16:48:00,88.7,77.7,29.87,ESE,112,3.8,3.8,70,0.00,,---,0.12,VWS V13.01,2013-08-26 20:48:00,
2013-08-26 16:49:00,88.7,77.7,29.87,NE,45,0.8,0.8,70,0.00,,---,0.12,VWS V13.01,2013-08-26 20:49:00,
2013-08-26 16:52:00,88.7,77.7,29.87,East,90,4.2,4.2,70,0.00,,---,0.12,VWS V13.01,2013-08-26 20:52:00,
2013-08-26 16:53:00,88.5,77.9,29.87,ENE,68,3.5,3.5,71,0.00,,---,0.12,VWS V13.01,2013-08-26 20:53:00,
2013-08-26 16:54:00,88.5,77.9,29.87,NE,45,5.3,5.3,71,0.00,,---,0.12,VWS V13.01,2013-08-26 20:54:00,
2013-08-26 16:57:00,88.5,77.9,29.87,ENE,68,6.0,6.0,71,0.00,,---,0.12,VWS V13.01,2013-08-26 20:57:00,
2013-08-26 16:58:00,88.5,77.9,29.87,East,90,4.6,4.6,71,0.00,,---,0.12,VWS V13.01,2013-08-26 20:58:00,
2013-08-26 16:59:00,88.5,77.9,29.87,ESE,112,7.1,7.1,71,0.00,,---,0.12,VWS V13.01,2013-08-26 20:59:00,
2013-08-26 17:02:00,88.3,77.7,29.87,ENE,68,0.8,5.1,71,0.00,,---,0.12,VWS V13.01,2013-08-26 21:02:00,
2013-08-26 17:03:00,88.3,77.7,29.87,ENE,68,0.8,0.8,71,0.00,,---,0.12,VWS V13.01,2013-08-26 21:03:00,
2013-08-26 17:04:00,88.3,77.7,29.87,South,180,2.0,2.0,71,0.00,,---,0.12,VWS V13.01,2013-08-26 21:04:00,
2013-08-26 17:07:00,88.3,77.7,29.87,ENE,68,4.0,4.0,71,0.00,,---,0.12,VWS V13.01,2013-08-26 21:07:00,
2013-08-26 17:08:00,88.3,77.7,29.87,ENE,68,4.0,4.0,71,0.00,,---,0.12,VWS V13.01,2013-08-26 21:08:00,
2013-08-26 17:09:00,88.3,78.1,29.87,NE,45,3.8,3.8,72,0.00,,---,0.12,VWS V13.01,2013-08-26 21:09:00,
2013-08-26 17:12:00,88.3,78.1,29.87,SSE,158,4.6,4.6,72,0.00,,---,0.12,VWS V13.01,2013-08-26 21:12:00,
2013-08-26 17:13:00,88.3,78.1,29.87,SSE,158,4.6,4.6,72,0.00,,---,0.12,VWS V13.01,2013-08-26 21:13:00,
2013-08-26 17:14:00,88.1,77.9,29.87,SW,225,4.4,4.4,72,0.00,,---,0.12,VWS V13.01,2013-08-26 21:14:00,
2013-08-26 17:17:00,87.9,77.8,29.87,SE,135,4.9,4.9,72,0.00,,---,0.12,VWS V13.01,2013-08-26 21:17:00,
2013-08-26 17:18:00,87.9,77.8,29.87,ESE,112,7.6,7.6,72,0.00,,---,0.12,VWS V13.01,2013-08-26 21:18:00,
2013-08-26 17:19:00,87.9,77.8,29.87,East,90,10.0,10.0,72,0.00,,---,0.12,VWS V13.01,2013-08-26 21:19:00,
2013-08-26 17:22:00,87.8,77.7,29.87,NNE,22,6.4,6.4,72,0.00,,---,0.12,VWS V13.01,2013-08-26 21:22:00,
2013-08-26 17:23:00,87.8,77.7,29.87,ESE,112,12.5,12.5,72,0.00,,---,0.12,VWS V13.01,2013-08-26 21:23:00,
2013-08-26 17:24:00,87.8,77.7,29.87,East,90,3.8,3.8,72,0.00,,---,0.12,VWS V13.01,2013-08-26 21:24:00,
2013-08-26 17:27:00,87.6,77.5,29.87,East,90,4.0,4.0,72,0.00,,---,0.12,VWS V13.01,2013-08-26 21:27:00,
2013-08-26 17:28:00,87.6,77.5,29.87,NE,45,3.5,3.5,72,0.00,,---,0.12,VWS V13.01,2013-08-26 21:28:00,
2013-08-26 17:29:00,87.6,77.9,29.87,SE,135,2.6,2.6,73,0.00,,---,0.12,VWS V13.01,2013-08-26 21:29:00,
2013-08-26 17:32:00,87.6,77.5,29.87,ESE,112,3.8,3.8,72,0.00,,---,0.12,VWS V13.01,2013-08-26 21:32:00,
2013-08-26 17:33:00,87.6,77.5,29.87,ENE,68,4.0,4.0,72,0.00,,---,0.12,VWS V13.01,2013-08-26 21:33:00,
2013-08-26 17:34:00,87.6,77.5,29.87,ENE,68,6.7,6.7,72,0.00,,---,0.12,VWS V13.01,2013-08-26 21:34:00,
2013-08-26 17:37:00,87.4,76.8,29.87,SSE,158,6.2,6.2,71,0.00,,---,0.12,VWS V13.01,2013-08-26 21:37:00,
2013-08-26 17:38:00,87.4,76.8,29.87,ESE,112,1.5,1.5,71,0.00,,---,0.12,VWS V13.01,2013-08-26 21:38:00,
2013-08-26 17:39:00,87.4,76.8,29.87,ESE,112,1.5,1.5,71,0.00,,---,0.12,VWS V13.01,2013-08-26 21:39:00,
2013-08-26 17:42:00,87.4,76.8,29.87,SE,135,2.2,2.2,71,0.00,,---,0.12,VWS V13.01,2013-08-26 21:42:00,
2013-08-26 17:43:00,87.4,76.8,29.87,SSE,158,5.3,5.3,71,0.00,,---,0.12,VWS V13.01,2013-08-26 21:43:00,
2013-08-26 17:44:00,87.4,76.8,29.87,SSE,158,5.3,5.3,71,0.00,,---,0.12,VWS V13.01,2013-08-26 21:44:00,
2013-08-26 17:47:00,87.0,76.9,29.87,SE,135,0.0,0.0,72,0.00,,---,0.12,VWS V13.01,2013-08-26 21:47:00,
2013-08-26 17:49:00,87.2,77.1,29.87,ENE,68,0.0,0.0,72,0.00,,---,0.12,VWS V13.01,2013-08-26 21:49:00,
2013-08-26 17:52:00,87.0,76.9,29.86,ESE,112,0.0,0.0,72,0.00,,---,0.12,VWS V13.01,2013-08-26 21:52:00,
2013-08-26 17:54:00,87.0,76.9,29.87,ESE,112,2.2,2.2,72,0.00,,---,0.12,VWS V13.01,2013-08-26 21:54:00,
2013-08-26 17:57:00,87.0,77.3,29.87,ESE,112,2.0,2.0,73,0.00,,---,0.12,VWS V13.01,2013-08-26 21:57:00,
2013-08-26 17:59:00,87.0,77.3,29.87,East,90,2.9,2.9,73,0.00,,---,0.12,VWS V13.01,2013-08-26 21:59:00,
2013-08-26 18:02:00,86.9,77.2,29.87,East,90,6.7,6.7,73,0.00,,---,0.12,VWS V13.01,2013-08-26 22:02:00,
2013-08-26 18:04:00,86.9,77.2,29.87,ENE,68,1.3,1.3,73,0.00,,---,0.12,VWS V13.01,2013-08-26 22:04:00,
2013-08-26 18:05:00,86.7,77.4,29.87,East,90,3.8,3.8,74,0.00,,---,0.12,VWS V13.01,2013-08-26 22:05:00,
2013-08-26 18:07:00,86.7,77.4,29.87,ENE,68,4.9,4.9,74,0.00,,---,0.12,VWS V13.01,2013-08-26 22:07:00,
2013-08-26 18:09:00,86.7,77.4,29.87,East,90,1.7,1.7,74,0.00,,---,0.12,VWS V13.01,2013-08-26 22:09:00,
2013-08-26 18:10:00,86.7,77.4,29.87,East,90,4.2,4.2,74,0.00,,---,0.12,VWS V13.01,2013-08-26 22:10:00,
2013-08-26 18:13:00,86.7,77.8,29.87,ENE,68,2.2,2.2,75,0.00,,---,0.12,VWS V13.01,2013-08-26 22:13:00,
2013-08-26 18:14:00,86.7,77.8,29.87,ENE,68,6.9,6.9,75,0.00,,---,0.12,VWS V13.01,2013-08-26 22:14:00,
2013-08-26 18:15:00,86.7,77.8,29.87,ENE,68,2.6,2.6,75,0.00,,---,0.12,VWS V13.01,2013-08-26 22:15:00,
2013-08-26 18:18:00,86.7,77.8,29.87,SE,135,7.8,7.8,75,0.00,,---,0.12,VWS V13.01,2013-08-26 22:18:00,
2013-08-26 18:19:00,86.5,77.6,29.87,ESE,112,2.9,2.9,75,0.00,,---,0.12,VWS V13.01,2013-08-26 22:19:00,
2013-08-26 18:20:00,86.7,77.4,29.87,East,90,1.3,1.3,74,0.00,,---,0.12,VWS V13.01,2013-08-26 22:20:00,
2013-08-26 18:23:00,86.5,77.6,29.87,ENE,68,0.0,0.0,75,0.00,,---,0.12,VWS V13.01,2013-08-26 22:23:00,
2013-08-26 18:24:00,86.5,77.6,29.88,ENE,68,2.0,2.0,75,0.00,,---,0.12,VWS V13.01,2013-08-26 22:24:00,
2013-08-26 18:25:00,86.5,77.6,29.88,East,90,4.4,4.4,75,0.00,,---,0.12,VWS V13.01,2013-08-26 22:25:00,
2013-08-26 18:29:00,86.3,77.0,29.87,ENE,68,7.8,7.8,74,0.00,,---,0.12,VWS V13.01,2013-08-26 22:29:00,
2013-08-26 18:30:00,86.3,77.0,29.87,ESE,112,1.3,1.3,74,0.00,,---,0.12,VWS V13.01,2013-08-26 22:30:00,
2013-08-26 18:34:00,86.1,76.8,29.87,SE,135,3.5,3.5,74,0.00,,---,0.12,VWS V13.01,2013-08-26 22:34:00,
2013-08-26 18:35:00,86.1,77.2,29.87,ENE,68,2.4,2.4,75,0.00,,---,0.12,VWS V13.01,2013-08-26 22:35:00,
2013-08-26 18:39:00,86.1,77.2,29.87,ESE,112,8.2,8.2,75,0.00,,---,0.12,VWS V13.01,2013-08-26 22:39:00,
2013-08-26 18:40:00,86.0,77.2,29.87,ENE,68,0.0,0.0,75,0.00,,---,0.12,VWS V13.01,2013-08-26 22:40:00,
2013-08-26 18:44:00,85.8,77.0,29.88,ENE,68,0.6,0.6,75,0.00,,---,0.12,VWS V13.01,2013-08-26 22:44:00,
2013-08-26 18:45:00,85.8,77.4,29.88,ENE,68,0.6,0.6,76,0.00,,---,0.12,VWS V13.01,2013-08-26 22:45:00,
2013-08-26 18:49:00,85.8,77.4,29.88,ESE,112,0.0,0.0,76,0.00,,---,0.12,VWS V13.01,2013-08-26 22:49:00,
2013-08-26 18:50:00,85.8,77.4,29.88,East,90,4.2,4.2,76,0.00,,---,0.12,VWS V13.01,2013-08-26 22:50:00,
2013-08-26 18:54:00,85.6,77.2,29.88,ENE,68,6.7,6.7,76,0.00,,---,0.12,VWS V13.01,2013-08-26 22:54:00,
2013-08-26 18:55:00,85.6,76.8,29.87,ESE,112,5.8,5.8,75,0.00,,---,0.12,VWS V13.01,2013-08-26 22:55:00,
2013-08-26 18:59:00,85.6,76.8,29.87,ESE,112,2.4,2.4,75,0.00,,---,0.12,VWS V13.01,2013-08-26 22:59:00,
2013-08-26 19:00:00,85.4,76.6,29.87,North,0,0.0,0.0,75,0.00,,---,0.12,VWS V13.01,2013-08-26 23:00:00,
2013-08-26 19:04:00,85.2,76.4,29.87,ESE,112,0.0,0.0,75,0.00,,---,0.12,VWS V13.01,2013-08-26 23:04:00,
2013-08-26 19:05:00,85.2,76.4,29.87,ESE,112,6.2,6.2,75,0.00,,---,0.12,VWS V13.01,2013-08-26 23:05:00,
2013-08-26 19:09:00,85.2,76.4,29.87,ENE,68,1.7,1.7,75,0.00,,---,0.12,VWS V13.01,2013-08-26 23:09:00,
2013-08-26 19:10:00,85.2,76.4,29.87,ENE,68,1.7,1.7,75,0.00,,---,0.12,VWS V13.01,2013-08-26 23:10:00,
2013-08-26 19:14:00,85.1,76.3,29.88,SE,135,4.2,4.2,75,0.00,,---,0.12,VWS V13.01,2013-08-26 23:14:00,
2013-08-26 19:15:00,85.1,76.3,29.88,SE,135,4.2,4.2,75,0.00,,---,0.12,VWS V13.01,2013-08-26 23:15:00,
2013-08-26 19:19:00,85.1,76.3,29.88,ENE,68,3.5,3.5,75,0.00,,---,0.12,VWS V13.01,2013-08-26 23:19:00,
2013-08-26 19:20:00,85.1,76.3,29.88,ENE,68,3.5,3.5,75,0.00,,---,0.12,VWS V13.01,2013-08-26 23:20:00,
2013-08-26 19:24:00,84.9,76.1,29.88,ESE,112,2.0,2.0,75,0.00,,---,0.12,VWS V13.01,2013-08-26 23:24:00,
2013-08-26 19:25:00,84.9,76.1,29.88,ESE,112,0.0,2.0,75,0.00,,---,0.12,VWS V13.01,2013-08-26 23:25:00,
2013-08-26 19:26:00,84.9,76.1,29.88,ESE,112,0.0,0.0,75,0.00,,---,0.12,VWS V13.01,2013-08-26 23:26:00,
2013-08-26 19:29:00,84.9,76.1,29.88,ESE,112,4.0,4.0,75,0.00,,---,0.12,VWS V13.01,2013-08-26 23:29:00,
2013-08-26 19:30:00,84.9,76.1,29.88,East,90,2.0,2.0,75,0.00,,---,0.12,VWS V13.01,2013-08-26 23:30:00,
2013-08-26 19:31:00,84.9,76.1,29.88,East,90,2.0,2.0,75,0.00,,---,0.12,VWS V13.01,2013-08-26 23:31:00,
2013-08-26 19:34:00,84.9,76.5,29.88,SE,135,4.9,4.9,76,0.00,,---,0.12,VWS V13.01,2013-08-26 23:34:00,
2013-08-26 19:35:00,84.9,76.5,29.88,SE,135,4.9,4.9,76,0.00,,---,0.12,VWS V13.01,2013-08-26 23:35:00,
2013-08-26 19:36:00,84.9,76.5,29.88,ESE,112,7.3,7.3,76,0.00,,---,0.12,VWS V13.01,2013-08-26 23:36:00,
2013-08-26 19:39:00,84.9,76.5,29.88,SE,135,2.2,2.2,76,0.00,,---,0.12,VWS V13.01,2013-08-26 23:39:00,
2013-08-26 19:40:00,84.9,76.5,29.88,SE,135,2.2,2.2,76,0.00,,---,0.12,VWS V13.01,2013-08-26 23:40:00,
2013-08-26 19:41:00,84.9,76.5,29.89,SE,135,0.0,0.0,76,0.00,,---,0.12,VWS V13.01,2013-08-26 23:41:00,
2013-08-26 19:44:00,84.9,76.5,29.88,ESE,112,2.4,2.4,76,0.00,,---,0.12,VWS V13.01,2013-08-26 23:44:00,
2013-08-26 19:45:00,84.9,76.5,29.88,ESE,112,2.4,2.4,76,0.00,,---,0.12,VWS V13.01,2013-08-26 23:45:00,
2013-08-26 19:46:00,84.7,76.3,29.89,ESE,112,3.1,3.1,76,0.00,,---,0.12,VWS V13.01,2013-08-26 23:46:00,
2013-08-26 19:49:00,84.7,76.7,29.88,SE,135,3.8,3.8,77,0.00,,---,0.12,VWS V13.01,2013-08-26 23:49:00,
2013-08-26 19:50:00,84.7,76.7,29.88,SE,135,3.8,3.8,77,0.00,,---,0.12,VWS V13.01,2013-08-26 23:50:00,
2013-08-26 19:51:00,84.7,76.7,29.88,SE,135,4.6,4.6,77,0.00,,---,0.12,VWS V13.01,2013-08-26 23:51:00,
2013-08-26 19:54:00,84.7,76.7,29.88,SE,135,1.3,1.3,77,0.00,,---,0.12,VWS V13.01,2013-08-26 23:54:00,
2013-08-26 19:55:00,84.7,76.7,29.88,ENE,68,6.9,6.9,77,0.00,,---,0.12,VWS V13.01,2013-08-26 23:55:00,
2013-08-26 19:56:00,84.7,76.7,29.88,ENE,68,6.9,6.9,77,0.00,,---,0.12,VWS V13.01,2013-08-26 23:56:00,
2013-08-26 19:59:00,84.7,76.7,29.88,East,90,0.0,0.0,77,0.00,,---,0.12,VWS V13.01,2013-08-26 23:59:00,
2013-08-26 20:00:00,84.7,76.7,29.89,SE,135,5.1,5.1,77,0.00,,---,0.12,VWS V13.01,2013-08-27 00:00:00,
2013-08-26 20:01:00,84.7,76.7,29.89,SE,135,5.1,5.1,77,0.00,,---,0.12,VWS V13.01,2013-08-27 00:01:00,
2013-08-26 20:05:00,84.7,76.7,29.89,SE,135,0.0,0.0,77,0.00,,---,0.12,VWS V13.01,2013-08-27 00:05:00,
2013-08-26 20:06:00,84.7,76.7,29.89,ENE,68,0.8,0.8,77,0.00,,---,0.12,VWS V13.01,2013-08-27 00:06:00,
2013-08-26 20:10:00,84.7,76.7,29.89,East,90,3.1,3.1,77,0.00,,---,0.12,VWS V13.01,2013-08-27 00:10:00,
2013-08-26 20:11:00,84.7,76.7,29.89,SE,135,2.4,2.4,77,0.00,,---,0.12,VWS V13.01,2013-08-27 00:11:00,
2013-08-26 20:15:00,84.7,76.7,29.89,East,90,4.4,4.4,77,0.00,,---,0.12,VWS V13.01,2013-08-27 00:15:00,
2013-08-26 20:16:00,84.7,76.7,29.89,ENE,68,8.9,8.9,77,0.00,,---,0.12,VWS V13.01,2013-08-27 00:16:00,
2013-08-26 20:20:00,84.5,76.5,29.89,NNE,22,4.0,4.0,77,0.00,,---,0.12,VWS V13.01,2013-08-27 00:20:00,
2013-08-26 20:21:00,84.5,76.5,29.89,SE,135,2.2,2.2,77,0.00,,---,0.12,VWS V13.01,2013-08-27 00:21:00,
2013-08-26 20:25:00,84.3,76.3,29.90,SE,135,4.4,4.4,77,0.00,,---,0.12,VWS V13.01,2013-08-27 00:25:00,
2013-08-26 20:26:00,84.3,76.3,29.90,ENE,68,2.2,2.2,77,0.00,,---,0.12,VWS V13.01,2013-08-27 00:26:00,
2013-08-26 20:30:00,84.2,76.2,29.90,ENE,68,6.2,6.2,77,0.00,,---,0.12,VWS V13.01,2013-08-27 00:30:00,
2013-08-26 20:31:00,84.0,76.0,29.90,East,90,6.7,6.7,77,0.00,,---,0.12,VWS V13.01,2013-08-27 00:31:00,
2013-08-26 20:35:00,84.0,76.4,29.89,NE,45,2.0,2.0,78,0.00,,---,0.12,VWS V13.01,2013-08-27 00:35:00,
2013-08-26 20:36:00,84.0,76.4,29.89,ENE,68,0.6,0.6,78,0.00,,---,0.12,VWS V13.01,2013-08-27 00:36:00,
2013-08-26 20:37:00,84.0,76.4,29.89,NNW,338,0.0,0.0,78,0.00,,---,0.12,VWS V13.01,2013-08-27 00:37:00,
2013-08-26 20:40:00,84.0,76.4,29.89,SSE,158,4.4,4.4,78,0.00,,---,0.12,VWS V13.01,2013-08-27 00:40:00,
2013-08-26 20:41:00,84.0,76.4,29.89,SE,135,1.3,1.3,78,0.00,,---,0.12,VWS V13.01,2013-08-27 00:41:00,
2013-08-26 20:42:00,84.0,76.4,29.89,ENE,68,4.6,4.6,78,0.00,,---,0.12,VWS V13.01,2013-08-27 00:42:00,
2013-08-26 20:45:00,84.0,76.0,29.90,ENE,68,1.5,1.5,77,0.00,,---,0.12,VWS V13.01,2013-08-27 00:45:00,
2013-08-26 20:46:00,84.0,76.0,29.90,SE,135,0.0,0.0,77,0.00,,---,0.12,VWS V13.01,2013-08-27 00:46:00,
2013-08-26 20:47:00,84.0,76.0,29.90,South,180,1.7,1.7,77,0.00,,---,0.12,VWS V13.01,2013-08-27 00:47:00,
2013-08-26 20:50:00,84.0,76.0,29.90,SE,135,2.0,2.9,77,0.00,,---,0.12,VWS V13.01,2013-08-27 00:50:00,
2013-08-26 20:51:00,84.0,76.0,29.90,SE,135,2.0,2.0,77,0.00,,---,0.12,VWS V13.01,2013-08-27 00:51:00,
2013-08-26 20:52:00,84.0,76.0,29.89,East,90,1.1,1.1,77,0.00,,---,0.12,VWS V13.01,2013-08-27 00:52:00,
2013-08-26 20:55:00,84.0,76.0,29.90,ENE,68,1.5,1.5,77,0.00,,---,0.12,VWS V13.01,2013-08-27 00:55:00,
2013-08-26 20:56:00,84.0,76.0,29.90,ENE,68,1.5,1.5,77,0.00,,---,0.12,VWS V13.01,2013-08-27 00:56:00,
2013-08-26 20:57:00,84.0,76.0,29.90,NNE,22,2.0,2.0,77,0.00,,---,0.12,VWS V13.01,2013-08-27 00:57:00,
2013-08-26 21:00:00,84.0,76.4,29.90,ENE,68,1.3,1.3,78,0.00,,---,0.12,VWS V13.01,2013-08-27 01:00:00,
2013-08-26 21:01:00,84.0,76.4,29.90,ENE,68,1.3,1.3,78,0.00,,---,0.12,VWS V13.01,2013-08-27 01:01:00,
2013-08-26 21:02:00,84.0,76.4,29.90,SE,135,2.0,2.0,78,0.00,,---,0.12,VWS V13.01,2013-08-27 01:02:00,
2013-08-26 21:05:00,84.0,76.4,29.90,SE,135,1.7,1.7,78,0.00,,---,0.12,VWS V13.01,2013-08-27 01:05:00,
2013-08-26 21:06:00,84.0,76.4,29.90,SE,135,1.7,1.7,78,0.00,,---,0.12,VWS V13.01,2013-08-27 01:06:00,
2013-08-26 21:07:00,84.0,76.4,29.90,ESE,112,0.0,0.0,78,0.00,,---,0.12,VWS V13.01,2013-08-27 01:07:00,
2013-08-26 21:10:00,84.0,76.4,29.91,SSE,158,4.6,4.6,78,0.00,,---,0.12,VWS V13.01,2013-08-27 01:10:00,
2013-08-26 21:11:00,84.0,76.4,29.91,SSE,158,4.6,4.6,78,0.00,,---,0.12,VWS V13.01,2013-08-27 01:11:00,
2013-08-26 21:12:00,84.0,76.0,29.91,East,90,4.4,4.4,77,0.00,,---,0.12,VWS V13.01,2013-08-27 01:12:00,
2013-08-26 21:15:00,84.0,76.0,29.91,SE,135,0.0,0.0,77,0.00,,---,0.12,VWS V13.01,2013-08-27 01:15:00,
2013-08-26 21:16:00,84.0,76.0,29.91,SE,135,0.0,0.0,77,0.00,,---,0.12,VWS V13.01,2013-08-27 01:16:00,
2013-08-26 21:17:00,84.0,76.0,29.91,SE,135,0.0,0.0,77,0.00,,---,0.12,VWS V13.01,2013-08-27 01:17:00,
2013-08-26 21:20:00,84.0,76.0,29.91,SE,135,6.2,6.2,77,0.00,,---,0.12,VWS V13.01,2013-08-27 01:20:00,
2013-08-26 21:21:00,84.0,76.0,29.91,SE,135,6.2,6.2,77,0.00,,---,0.12,VWS V13.01,2013-08-27 01:21:00,
2013-08-26 21:22:00,84.0,76.0,29.91,SE,135,5.5,5.5,77,0.00,,---,0.12,VWS V13.01,2013-08-27 01:22:00,
2013-08-26 21:23:00,84.0,76.0,29.90,SE,135,2.4,2.4,77,0.00,,---,0.12,VWS V13.01,2013-08-27 01:23:00,
2013-08-26 21:26:00,84.0,76.0,29.91,East,90,2.4,2.4,77,0.00,,---,0.12,VWS V13.01,2013-08-27 01:26:00,
2013-08-26 21:27:00,84.0,76.0,29.91,SE,135,0.0,0.0,77,0.00,,---,0.12,VWS V13.01,2013-08-27 01:27:00,
2013-08-26 21:28:00,84.0,76.0,29.91,ESE,112,0.8,0.8,77,0.00,,---,0.12,VWS V13.01,2013-08-27 01:28:00,
2013-08-26 21:31:00,84.0,76.0,29.91,ENE,68,4.4,4.4,77,0.00,,---,0.12,VWS V13.01,2013-08-27 01:31:00,
2013-08-26 21:32:00,84.0,75.6,29.91,East,90,1.7,1.7,76,0.00,,---,0.12,VWS V13.01,2013-08-27 01:32:00,
2013-08-26 21:33:00,84.0,75.6,29.91,SSE,158,0.0,0.0,76,0.00,,---,0.12,VWS V13.01,2013-08-27 01:33:00,
2013-08-26 21:36:00,84.0,75.6,29.91,SE,135,3.8,3.8,76,0.00,,---,0.12,VWS V13.01,2013-08-27 01:36:00,
2013-08-26 21:37:00,84.0,75.6,29.91,East,90,1.3,1.3,76,0.00,,---,0.12,VWS V13.01,2013-08-27 01:37:00,
2013-08-26 21:38:00,84.0,75.6,29.91,ESE,112,1.7,1.7,76,0.00,,---,0.12,VWS V13.01,2013-08-27 01:38:00,
2013-08-26 21:41:00,84.0,76.0,29.91,East,90,4.2,4.2,77,0.00,,---,0.12,VWS V13.01,2013-08-27 01:41:00,
2013-08-26 21:42:00,84.0,76.0,29.91,ENE,68,2.9,2.9,77,0.00,,---,0.12,VWS V13.01,2013-08-27 01:42:00,
2013-08-26 21:43:00,84.0,76.0,29.91,ENE,68,1.5,1.5,77,0.00,,---,0.12,VWS V13.01,2013-08-27 01:43:00,
2013-08-26 21:46:00,84.0,76.0,29.91,ENE,68,0.0,0.0,77,0.00,,---,0.12,VWS V13.01,2013-08-27 01:46:00,
2013-08-26 21:47:00,84.0,76.0,29.91,SE,135,1.7,1.7,77,0.00,,---,0.12,VWS V13.01,2013-08-27 01:47:00,
2013-08-26 21:48:00,84.0,76.0,29.91,ESE,112,0.0,0.0,77,0.00,,---,0.12,VWS V13.01,2013-08-27 01:48:00,
2013-08-26 21:51:00,84.0,76.0,29.92,ESE,112,0.0,0.0,77,0.00,,---,0.12,VWS V13.01,2013-08-27 01:51:00,
2013-08-26 21:52:00,84.0,76.0,29.91,SE,135,2.6,2.6,77,0.00,,---,0.12,VWS V13.01,2013-08-27 01:52:00,
2013-08-26 21:53:00,84.0,76.0,29.91,ESE,112,0.0,0.0,77,0.00,,---,0.12,VWS V13.01,2013-08-27 01:53:00,
2013-08-26 21:56:00,84.0,76.0,29.91,SE,135,1.5,1.5,77,0.00,,---,0.12,VWS V13.01,2013-08-27 01:56:00,
2013-08-26 21:57:00,84.0,76.0,29.91,ESE,112,2.0,2.0,77,0.00,,---,0.12,VWS V13.01,2013-08-27 01:57:00,
2013-08-26 21:58:00,84.0,76.0,29.91,ESE,112,2.0,2.0,77,0.00,,---,0.12,VWS V13.01,2013-08-27 01:58:00,
2013-08-26 22:01:00,84.0,76.4,29.91,East,90,0.0,0.0,78,0.00,,---,0.12,VWS V13.01,2013-08-27 02:01:00,
2013-08-26 22:02:00,84.0,76.4,29.91,SE,135,0.8,0.8,78,0.00,,---,0.12,VWS V13.01,2013-08-27 02:02:00,
2013-08-26 22:03:00,84.0,76.4,29.91,SE,135,0.8,0.8,78,0.00,,---,0.12,VWS V13.01,2013-08-27 02:03:00,
2013-08-26 22:06:00,84.0,76.4,29.91,ENE,68,2.4,2.4,78,0.00,,---,0.12,VWS V13.01,2013-08-27 02:06:00,
2013-08-26 22:07:00,84.0,76.4,29.91,SSE,158,1.3,1.3,78,0.00,,---,0.12,VWS V13.01,2013-08-27 02:07:00,
2013-08-26 22:08:00,84.0,76.4,29.91,NNE,22,2.4,2.4,78,0.00,,---,0.12,VWS V13.01,2013-08-27 02:08:00,
2013-08-26 22:11:00,84.0,76.4,29.91,ESE,112,5.8,5.8,78,0.00,,---,0.12,VWS V13.01,2013-08-27 02:11:00,
2013-08-26 22:12:00,84.0,76.4,29.91,ESE,112,0.0,0.0,78,0.00,,---,0.12,VWS V13.01,2013-08-27 02:12:00,
2013-08-26 22:13:00,84.0,76.4,29.91,SE,135,2.0,2.0,78,0.00,,---,0.12,VWS V13.01,2013-08-27 02:13:00,
2013-08-26 22:16:00,84.0,76.4,29.91,SE,135,1.3,1.3,78,0.00,,---,0.12,VWS V13.01,2013-08-27 02:16:00,
2013-08-26 22:17:00,84.0,76.4,29.91,South,180,2.2,2.2,78,0.00,,---,0.12,VWS V13.01,2013-08-27 02:17:00,
2013-08-26 22:18:00,84.0,76.4,29.91,ESE,112,1.3,1.3,78,0.00,,---,0.12,VWS V13.01,2013-08-27 02:18:00,
2013-08-26 22:21:00,84.0,76.4,29.91,ENE,68,1.3,1.3,78,0.00,,---,0.12,VWS V13.01,2013-08-27 02:21:00,
2013-08-26 22:22:00,84.0,76.4,29.91,SSE,158,0.0,0.0,78,0.00,,---,0.12,VWS V13.01,2013-08-27 02:22:00,
2013-08-26 22:23:00,84.0,76.4,29.91,ESE,112,4.2,4.2,78,0.00,,---,0.12,VWS V13.01,2013-08-27 02:23:00,
2013-08-26 22:26:00,84.0,76.4,29.91,SE,135,2.2,2.2,78,0.00,,---,0.12,VWS V13.01,2013-08-27 02:26:00,
2013-08-26 22:27:00,84.0,76.4,29.91,East,90,2.0,2.0,78,0.00,,---,0.12,VWS V13.01,2013-08-27 02:27:00,
2013-08-26 22:28:00,84.0,76.4,29.91,ENE,68,1.7,1.7,78,0.00,,---,0.12,VWS V13.01,2013-08-27 02:28:00,
2013-08-26 22:29:00,84.0,76.4,29.91,ENE,68,1.7,1.7,78,0.00,,---,0.12,VWS V13.01,2013-08-27 02:29:00,
2013-08-26 22:31:00,84.0,76.4,29.92,SSE,158,6.9,6.9,78,0.00,,---,0.12,VWS V13.01,2013-08-27 02:31:00,
2013-08-26 22:32:00,84.0,76.4,29.92,SSE,158,6.9,6.9,78,0.00,,---,0.12,VWS V13.01,2013-08-27 02:32:00,
2013-08-26 22:33:00,84.0,76.4,29.91,East,90,5.3,5.3,78,0.00,,---,0.12,VWS V13.01,2013-08-27 02:33:00,
2013-08-26 22:34:00,84.0,76.4,29.91,East,90,5.3,5.3,78,0.00,,---,0.12,VWS V13.01,2013-08-27 02:34:00,
2013-08-26 22:36:00,83.8,76.2,29.91,South,180,4.0,4.0,78,0.00,,---,0.12,VWS V13.01,2013-08-27 02:36:00,
2013-08-26 22:37:00,83.8,76.2,29.91,South,180,4.0,4.0,78,0.00,,---,0.12,VWS V13.01,2013-08-27 02:37:00,
2013-08-26 22:38:00,83.8,76.2,29.91,SE,135,1.5,1.5,78,0.00,,---,0.12,VWS V13.01,2013-08-27 02:38:00,
2013-08-26 22:39:00,83.8,76.2,29.91,ESE,112,3.5,3.5,78,0.00,,---,0.12,VWS V13.01,2013-08-27 02:39:00,
2013-08-26 22:41:00,83.8,76.2,29.91,NNE,22,0.0,0.0,78,0.00,,---,0.12,VWS V13.01,2013-08-27 02:41:00,
2013-08-26 22:42:00,83.8,76.2,29.91,NNE,22,0.0,0.0,78,0.00,,---,0.12,VWS V13.01,2013-08-27 02:42:00,
2013-08-26 22:43:00,83.8,76.2,29.92,SSE,158,2.0,2.0,78,0.00,,---,0.12,VWS V13.01,2013-08-27 02:43:00,
2013-08-26 22:44:00,83.8,76.2,29.91,ESE,112,4.2,4.2,78,0.00,,---,0.12,VWS V13.01,2013-08-27 02:44:00,
2013-08-26 22:46:00,83.8,76.2,29.91,SE,135,4.6,4.6,78,0.00,,---,0.12,VWS V13.01,2013-08-27 02:46:00,
2013-08-26 22:47:00,83.8,76.2,29.91,SE,135,4.6,4.6,78,0.00,,---,0.12,VWS V13.01,2013-08-27 02:47:00,
2013-08-26 22:48:00,83.8,76.6,29.91,SE,135,0.8,0.8,79,0.00,,---,0.12,VWS V13.01,2013-08-27 02:48:00,
2013-08-26 22:49:00,83.8,76.6,29.91,ENE,68,4.9,4.9,79,0.00,,---,0.12,VWS V13.01,2013-08-27 02:49:00,
2013-08-26 22:51:00,83.8,76.6,29.91,SE,135,1.1,1.1,79,0.00,,---,0.12,VWS V13.01,2013-08-27 02:51:00,
2013-08-26 22:52:00,83.8,76.6,29.91,SSE,158,2.4,2.4,79,0.00,,---,0.12,VWS V13.01,2013-08-27 02:52:00,
2013-08-26 22:53:00,83.8,76.6,29.91,SSE,158,2.4,2.4,79,0.00,,---,0.12,VWS V13.01,2013-08-27 02:53:00,
2013-08-26 22:54:00,83.8,76.6,29.91,ESE,112,0.0,0.0,79,0.00,,---,0.12,VWS V13.01,2013-08-27 02:54:00,
2013-08-26 22:56:00,83.8,76.6,29.91,NE,45,6.0,6.0,79,0.00,,---,0.12,VWS V13.01,2013-08-27 02:56:00,
2013-08-26 22:57:00,83.8,76.6,29.91,ESE,112,1.5,1.5,79,0.00,,---,0.12,VWS V13.01,2013-08-27 02:57:00,
2013-08-26 22:58:00,83.8,76.6,29.91,ESE,112,1.5,1.5,79,0.00,,---,0.12,VWS V13.01,2013-08-27 02:58:00,
2013-08-26 22:59:00,83.6,76.4,29.91,East,90,0.0,0.0,79,0.00,,---,0.12,VWS V13.01,2013-08-27 02:59:00,
2013-08-26 23:01:00,83.6,76.4,29.92,SSE,158,0.6,0.6,79,0.00,,---,0.12,VWS V13.01,2013-08-27 03:01:00,
2013-08-26 23:02:00,83.6,76.4,29.92,SE,135,0.0,0.0,79,0.00,,---,0.12,VWS V13.01,2013-08-27 03:02:00,
2013-08-26 23:03:00,83.6,76.4,29.92,SE,135,0.0,0.0,79,0.00,,---,0.12,VWS V13.01,2013-08-27 03:03:00,
2013-08-26 23:04:00,83.6,76.4,29.92,ENE,68,3.5,3.5,79,0.00,,---,0.12,VWS V13.01,2013-08-27 03:04:00,
2013-08-26 23:06:00,83.6,76.8,29.91,SE,135,1.1,1.1,80,0.00,,---,0.12,VWS V13.01,2013-08-27 03:06:00,
2013-08-26 23:07:00,83.4,76.6,29.91,ESE,112,3.8,3.8,80,0.00,,---,0.12,VWS V13.01,2013-08-27 03:07:00,
2013-08-26 23:08:00,83.4,76.6,29.91,ESE,112,3.8,3.8,80,0.00,,---,0.12,VWS V13.01,2013-08-27 03:08:00,
2013-08-26 23:09:00,83.4,76.6,29.91,East,90,1.1,1.1,80,0.00,,---,0.12,VWS V13.01,2013-08-27 03:09:00,
2013-08-26 23:12:00,83.4,76.6,29.91,ESE,112,0.0,0.0,80,0.00,,---,0.12,VWS V13.01,2013-08-27 03:12:00,
2013-08-26 23:13:00,83.4,76.6,29.91,SE,135,2.2,2.2,80,0.00,,---,0.12,VWS V13.01,2013-08-27 03:13:00,
2013-08-26 23:14:00,83.4,76.6,29.91,SE,135,2.2,2.2,80,0.00,,---,0.12,VWS V13.01,2013-08-27 03:14:00,
2013-08-26 23:17:00,83.4,76.6,29.91,SE,135,4.6,4.6,80,0.00,,---,0.12,VWS V13.01,2013-08-27 03:17:00,
2013-08-26 23:18:00,83.4,76.6,29.92,SSE,158,0.0,0.8,80,0.00,,---,0.12,VWS V13.01,2013-08-27 03:18:00,
2013-08-26 23:19:00,83.4,76.6,29.92,SSE,158,0.0,0.0,80,0.00,,---,0.12,VWS V13.01,2013-08-27 03:19:00,
2013-08-26 23:22:00,83.4,76.6,29.92,SSE,158,3.8,3.8,80,0.00,,---,0.12,VWS V13.01,2013-08-27 03:22:00,
2013-08-26 23:23:00,83.4,76.6,29.92,SE,135,2.6,2.6,80,0.00,,---,0.12,VWS V13.01,2013-08-27 03:23:00,
2013-08-26 23:24:00,83.4,76.6,29.92,SE,135,2.6,2.6,80,0.00,,---,0.12,VWS V13.01,2013-08-27 03:24:00,
2013-08-26 23:27:00,83.3,76.5,29.92,South,180,3.5,3.5,80,0.00,,---,0.12,VWS V13.01,2013-08-27 03:27:00,
2013-08-26 23:28:00,83.3,76.5,29.92,ESE,112,4.2,4.2,80,0.00,,---,0.12,VWS V13.01,2013-08-27 03:28:00,
2013-08-26 23:29:00,83.3,76.5,29.92,ESE,112,4.2,4.2,80,0.00,,---,0.12,VWS V13.01,2013-08-27 03:29:00,
2013-08-26 23:32:00,83.3,76.5,29.92,SE,135,2.0,2.0,80,0.00,,---,0.12,VWS V13.01,2013-08-27 03:32:00,
2013-08-26 23:33:00,83.3,76.5,29.92,SE,135,3.3,3.3,80,0.00,,---,0.12,VWS V13.01,2013-08-27 03:33:00,
2013-08-26 23:34:00,83.3,76.5,29.92,SE,135,3.3,3.3,80,0.00,,---,0.12,VWS V13.01,2013-08-27 03:34:00,
2013-08-26 23:37:00,83.3,76.5,29.92,SE,135,0.0,0.0,80,0.00,,---,0.12,VWS V13.01,2013-08-27 03:37:00,
2013-08-26 23:38:00,83.3,76.5,29.92,South,180,2.6,2.6,80,0.00,,---,0.12,VWS V13.01,2013-08-27 03:38:00,
2013-08-26 23:39:00,83.3,76.1,29.92,SSE,158,2.0,2.6,79,0.00,,---,0.12,VWS V13.01,2013-08-27 03:39:00,
2013-08-26 23:42:00,83.3,76.1,29.93,SSE,158,2.2,2.2,79,0.00,,---,0.12,VWS V13.01,2013-08-27 03:42:00,
2013-08-26 23:43:00,83.3,76.1,29.93,SSE,158,0.0,0.0,79,0.00,,---,0.12,VWS V13.01,2013-08-27 03:43:00,
2013-08-26 23:44:00,83.3,76.1,29.92,SE,135,4.0,4.0,79,0.00,,---,0.12,VWS V13.01,2013-08-27 03:44:00,
2013-08-26 23:47:00,83.3,76.1,29.91,SSE,158,0.8,2.0,79,0.00,,---,0.12,VWS V13.01,2013-08-27 03:47:00,
2013-08-26 23:48:00,83.3,76.1,29.92,East,90,0.0,0.0,79,0.00,,---,0.12,VWS V13.01,2013-08-27 03:48:00,
2013-08-26 23:49:00,83.3,76.1,29.91,SE,135,1.1,1.1,79,0.00,,---,0.12,VWS V13.01,2013-08-27 03:49:00,
2013-08-26 23:52:00,83.3,76.1,29.91,SE,135,0.0,0.0,79,0.00,,---,0.12,VWS V13.01,2013-08-27 03:52:00,
2013-08-26 23:53:00,83.3,76.1,29.91,SE,135,0.0,0.0,79,0.00,,---,0.12,VWS V13.01,2013-08-27 03:53:00,
2013-08-26 23:54:00,83.3,76.1,29.92,SE,135,4.2,4.2,79,0.00,,---,0.12,VWS V13.01,2013-08-27 03:54:00,
2013-08-26 23:55:00,83.3,76.1,29.92,SE,135,4.2,4.2,79,0.00,,---,0.12,VWS V13.01,2013-08-27 03:55:00,
2013-08-26 23:58:00,83.1,75.9,29.91,ESE,112,2.6,2.6,79,0.00,,---,0.00,VWS V13.01,2013-08-27 03:58:00,
2013-08-26 23:59:00,83.1,75.9,29.91,ESE,112,0.6,0.6,79,0.00,,---,0.00,VWS V13.01,2013-08-27 03:59:00,